AZU8751 LPPT-SBKP

Flight info

Callsign AZU8751
Flight time 9h 45m
Altitude 19000
Route ESP B18 GANSU/N0486F310 DCT NARTA/N0488F330 DCT SNT Q205 MADAT DCT NELSO N741 ROSTA/N0488F340 N741 ERONI/N0487F350 N741 EDUMO UN741 KEPAS/N0485F360 UN741 JOBER/N0477F380 UN741 GEVMI UM654 ASDAS UN741 VULAD UM654 DEVIR/N0469F390 UZ2 ENTIT
Aircraft A339/H-SADE1E2E3GHIJ3J5M1P2RWXY/LB2D1

Departure

Time 2026-05-08 14:00
Airport Lisbon Humberto Delgado Airport (LPPT)

Arrival

Time 2026-05-08 23:46
Airport Viracopos International Airport (SBKP)
Time Latitude Longitude Altitude Speed Heading
2026-05-08 13:22 38.76890 -9.13061 352 ft 0 kts 78°
2026-05-08 13:34 38.77488 -9.13174 348 ft 0 kts 78°
2026-05-08 13:34 38.77428 -9.13159 352 ft 0 kts 78°
2026-05-08 13:39 38.76890 -9.13061 343 ft 0 kts 78°
2026-05-08 13:40 38.77428 -9.13159 352 ft 0 kts 78°
2026-05-08 13:49 38.77428 -9.13160 352 ft 2 kts 78°
2026-05-08 13:49 38.77422 -9.13192 354 ft 4 kts 78°
2026-05-08 13:49 38.77417 -9.13222 354 ft 2 kts 78°
2026-05-08 13:49 38.77413 -9.13250 354 ft 4 kts 50°
2026-05-08 13:50 38.77401 -9.13268 355 ft 4 kts
2026-05-08 13:50 38.77377 -9.13266 355 ft 4 kts 348°
2026-05-08 13:50 38.77360 -9.13262 355 ft 0 kts 348°
2026-05-08 13:53 38.77361 -9.13262 344 ft 1 kts 348°
2026-05-08 13:53 38.77387 -9.13269 349 ft 7 kts 348°
2026-05-08 13:53 38.77462 -9.13290 350 ft 15 kts 348°
2026-05-08 13:54 38.77587 -9.13317 344 ft 19 kts 355°
2026-05-08 13:54 38.77716 -9.13338 348 ft 17 kts 345°
2026-05-08 13:54 38.77813 -9.13362 356 ft 12 kts 349°
2026-05-08 13:54 38.77883 -9.13381 357 ft 9 kts 349°
2026-05-08 13:55 38.77932 -9.13395 365 ft 7 kts 347°
2026-05-08 13:55 38.77989 -9.13411 363 ft 10 kts 348°
2026-05-08 13:55 38.78183 -9.13462 371 ft 19 kts 348°
2026-05-08 13:56 38.78330 -9.13500 374 ft 23 kts 348°
2026-05-08 13:56 38.78479 -9.13541 374 ft 20 kts 349°
2026-05-08 13:56 38.78607 -9.13567 377 ft 18 kts
2026-05-08 13:56 38.78730 -9.13522 372 ft 20 kts 21°
2026-05-08 13:57 38.78878 -9.13446 361 ft 25 kts 21°
2026-05-08 13:57 38.79051 -9.13351 359 ft 28 kts 23°
2026-05-08 13:57 38.79227 -9.13257 360 ft 27 kts 21°
2026-05-08 13:57 38.79393 -9.13169 362 ft 24 kts 23°
2026-05-08 13:58 38.79536 -9.13093 369 ft 20 kts 21°
2026-05-08 13:58 38.79659 -9.13027 370 ft 18 kts 21°
2026-05-08 13:58 38.79765 -9.12947 368 ft 12 kts 54°
2026-05-08 13:58 38.79747 -9.12831 362 ft 15 kts 112°
2026-05-08 13:59 38.79674 -9.12779 359 ft 10 kts 178°
2026-05-08 13:59 38.79644 -9.12791 366 ft 0 kts 198°
2026-05-08 13:59 38.79526 -9.12846 363 ft 51 kts 201°
2026-05-08 13:59 38.78982 -9.13125 364 ft 115 kts 204°
2026-05-08 14:00 38.78100 -9.13635 407 ft 159 kts 203°
2026-05-08 14:00 38.77190 -9.14160 875 ft 162 kts 200°
2026-05-08 14:00 38.76119 -9.14666 1522 ft 167 kts 197°
2026-05-08 14:00 38.75037 -9.15123 2321 ft 160 kts 195°
2026-05-08 14:01 38.73892 -9.15653 2543 ft 184 kts 199°
2026-05-08 14:01 38.72637 -9.16290 2770 ft 206 kts 200°
2026-05-08 14:01 38.71302 -9.17004 3306 ft 209 kts 201°
2026-05-08 14:01 38.69934 -9.17758 3702 ft 224 kts 201°
2026-05-08 14:02 38.68452 -9.18592 3911 ft 240 kts 201°
2026-05-08 14:02 38.66918 -9.19469 4223 ft 247 kts 202°
2026-05-08 14:02 38.65397 -9.20346 4837 ft 245 kts 202°
2026-05-08 14:02 38.63843 -9.21198 5382 ft 248 kts 198°
2026-05-08 14:03 38.62178 -9.21811 5887 ft 250 kts 193°
2026-05-08 14:03 38.60495 -9.22370 6456 ft 251 kts 193°
2026-05-08 14:03 38.58796 -9.22951 6928 ft 254 kts 194°
2026-05-08 14:03 38.57087 -9.23546 7453 ft 256 kts 194°
2026-05-08 14:04 38.55398 -9.24295 7956 ft 259 kts 203°
2026-05-08 14:04 38.53784 -9.25331 8471 ft 261 kts 205°
2026-05-08 14:04 38.52159 -9.26388 8994 ft 263 kts 205°
2026-05-08 14:04 38.50512 -9.27443 9526 ft 266 kts 205°
2026-05-08 14:05 38.48847 -9.28497 10026 ft 269 kts 205°
2026-05-08 14:05 38.47123 -9.29585 10193 ft 285 kts 205°
2026-05-08 14:05 38.45300 -9.30732 10327 ft 300 kts 205°
2026-05-08 14:05 38.43381 -9.31939 10485 ft 314 kts 205°
2026-05-08 14:06 38.41412 -9.33179 10924 ft 317 kts 205°
2026-05-08 14:06 38.39425 -9.34429 11400 ft 320 kts 205°
2026-05-08 14:06 38.37424 -9.35689 11888 ft 322 kts 205°
2026-05-08 14:06 38.35408 -9.36956 12369 ft 324 kts 206°
2026-05-08 14:07 38.33380 -9.38230 12842 ft 327 kts 206°
2026-05-08 14:07 38.31333 -9.39514 13325 ft 329 kts 206°
2026-05-08 14:07 38.29271 -9.40807 13792 ft 331 kts 206°
2026-05-08 14:07 38.27201 -9.42104 14244 ft 332 kts 206°
2026-05-08 14:08 38.25126 -9.43404 14699 ft 333 kts 206°
2026-05-08 14:08 38.23045 -9.44707 15150 ft 334 kts 206°
2026-05-08 14:08 38.20952 -9.46017 15596 ft 336 kts 206°
2026-05-08 14:08 38.18853 -9.47329 16041 ft 337 kts 206°
2026-05-08 14:09 38.16742 -9.48648 16475 ft 339 kts 206°
2026-05-08 14:09 38.14627 -9.49969 16934 ft 339 kts 206°
2026-05-08 14:09 38.12504 -9.51294 17379 ft 341 kts 206°
2026-05-08 14:09 38.10369 -9.52625 17804 ft 343 kts 206°
2026-05-08 14:10 38.08224 -9.53962 18232 ft 344 kts 206°
2026-05-08 14:10 38.06070 -9.55304 18620 ft 345 kts 206°
2026-05-08 14:10 38.03908 -9.56649 19016 ft 346 kts 206°
2026-05-08 14:10 38.01739 -9.58002 19396 ft 348 kts 207°
2026-05-08 14:11 37.99650 -9.59560 19781 ft 349 kts 213°
2026-05-08 14:11 37.97743 -9.61420 20163 ft 351 kts 219°
2026-05-08 14:11 37.95889 -9.63443 20544 ft 353 kts 219°
2026-05-08 14:11 37.94015 -9.65466 20939 ft 355 kts 219°
2026-05-08 14:12 37.92130 -9.67483 21345 ft 355 kts 219°
2026-05-08 14:12 37.90232 -9.69507 21736 ft 357 kts 219°
2026-05-08 14:12 37.88328 -9.71534 22134 ft 359 kts 219°
2026-05-08 14:12 37.86411 -9.73573 22537 ft 360 kts 219°
2026-05-08 14:13 37.84492 -9.75613 22919 ft 362 kts 219°
2026-05-08 14:13 37.82557 -9.77670 23319 ft 364 kts 219°
2026-05-08 14:13 37.80617 -9.79730 23678 ft 365 kts 219°
2026-05-08 14:13 37.78672 -9.81794 24065 ft 365 kts 219°
2026-05-08 14:14 37.76727 -9.83856 24432 ft 365 kts 219°
2026-05-08 14:14 37.74780 -9.85920 24797 ft 366 kts 219°
2026-05-08 14:14 37.72825 -9.87991 25145 ft 367 kts 219°
2026-05-08 14:14 37.70866 -9.90064 25503 ft 367 kts 219°
2026-05-08 14:15 37.68904 -9.92139 25847 ft 369 kts 219°
2026-05-08 14:15 37.66937 -9.94218 26192 ft 369 kts 220°
2026-05-08 14:15 37.64961 -9.96304 26530 ft 371 kts 220°
2026-05-08 14:15 37.63035 -9.98462 26843 ft 372 kts 224°
2026-05-08 14:16 37.61290 -10.00882 27171 ft 374 kts 230°
2026-05-08 14:16 37.59728 -10.03515 27488 ft 375 kts 232°
2026-05-08 14:16 37.58184 -10.06177 27769 ft 377 kts 232°
2026-05-08 14:16 37.56625 -10.08837 28086 ft 378 kts 232°
2026-05-08 14:17 37.55075 -10.11471 28382 ft 379 kts 232°
2026-05-08 14:17 37.53502 -10.14140 28691 ft 381 kts 232°
2026-05-08 14:17 37.51919 -10.16823 28983 ft 382 kts 232°
2026-05-08 14:17 37.50331 -10.19510 29263 ft 383 kts 232°
2026-05-08 14:18 37.48738 -10.22205 29530 ft 385 kts 232°
2026-05-08 14:18 37.47135 -10.24914 29825 ft 386 kts 232°
2026-05-08 14:18 37.45527 -10.27627 30074 ft 387 kts 232°
2026-05-08 14:18 37.43917 -10.30345 30382 ft 387 kts 232°
2026-05-08 14:19 37.42305 -10.33062 30664 ft 388 kts 232°
2026-05-08 14:19 37.40692 -10.35779 30972 ft 388 kts 232°
2026-05-08 14:19 37.39078 -10.38495 31280 ft 388 kts 232°
2026-05-08 14:19 37.37463 -10.41211 31596 ft 387 kts 232°
2026-05-08 14:20 37.35849 -10.43923 31883 ft 387 kts 232°
2026-05-08 14:20 37.34232 -10.46638 32164 ft 387 kts 232°
2026-05-08 14:20 37.32619 -10.49344 32436 ft 387 kts 232°
2026-05-08 14:20 37.31004 -10.52050 32671 ft 387 kts 232°
2026-05-08 14:21 37.29390 -10.54754 32824 ft 388 kts 232°
2026-05-08 14:21 37.26131 -10.60205 32820 ft 391 kts 232°
2026-05-08 14:22 37.23416 -10.64741 32819 ft 391 kts 231°
2026-05-08 14:22 37.20147 -10.70192 32816 ft 391 kts 231°
2026-05-08 14:23 37.16878 -10.75637 32815 ft 391 kts 231°
2026-05-08 14:23 37.13600 -10.81084 32809 ft 391 kts 231°
2026-05-08 14:24 37.10326 -10.86518 32807 ft 391 kts 231°
2026-05-08 14:24 37.07048 -10.91949 32805 ft 391 kts 231°
2026-05-08 14:25 37.03769 -10.97373 32798 ft 391 kts 231°
2026-05-08 14:25 37.00485 -11.02797 32799 ft 391 kts 231°
2026-05-08 14:26 36.97199 -11.08216 32789 ft 391 kts 231°
2026-05-08 14:26 36.93906 -11.13637 32792 ft 392 kts 231°
2026-05-08 14:27 36.90606 -11.19061 32785 ft 392 kts 230°
2026-05-08 14:27 36.87302 -11.24482 32782 ft 392 kts 230°
2026-05-08 14:28 36.83991 -11.29907 32781 ft 393 kts 230°
2026-05-08 14:28 36.80674 -11.35332 32779 ft 393 kts 230°
2026-05-08 14:29 36.77350 -11.40760 32773 ft 394 kts 230°
2026-05-08 14:29 36.74023 -11.46185 32769 ft 394 kts 230°
2026-05-08 14:30 36.70712 -11.51574 32766 ft 394 kts 230°
2026-05-08 14:30 36.67375 -11.56998 32768 ft 395 kts 230°
2026-05-08 14:31 36.64031 -11.62424 32760 ft 395 kts 230°
2026-05-08 14:31 36.60682 -11.67849 32752 ft 396 kts 230°
2026-05-08 14:32 36.55643 -11.75996 32735 ft 396 kts 230°
2026-05-08 14:32 36.52276 -11.81428 32744 ft 397 kts 230°
2026-05-08 14:33 36.48904 -11.86860 32754 ft 397 kts 230°
2026-05-08 14:33 36.45527 -11.92293 32755 ft 397 kts 230°
2026-05-08 14:34 36.42145 -11.97723 32751 ft 398 kts 230°
2026-05-08 14:34 36.38758 -12.03153 32747 ft 398 kts 230°
2026-05-08 14:35 36.35370 -12.08577 32748 ft 398 kts 230°
2026-05-08 14:35 36.31978 -12.13997 32753 ft 398 kts 230°
2026-05-08 14:36 36.28608 -12.19375 32749 ft 398 kts 230°
2026-05-08 14:36 36.25213 -12.24783 32750 ft 398 kts 230°
2026-05-08 14:37 36.21814 -12.30189 32750 ft 398 kts 230°
2026-05-08 14:37 36.18411 -12.35593 32747 ft 398 kts 230°
2026-05-08 14:38 36.15008 -12.40990 32748 ft 398 kts 230°
2026-05-08 14:38 36.11601 -12.46383 32737 ft 398 kts 230°
2026-05-08 14:39 36.08192 -12.51773 32740 ft 398 kts 230°
2026-05-08 14:39 36.04710 -12.57087 32743 ft 397 kts 226°
2026-05-08 14:40 36.00962 -12.62098 32738 ft 397 kts 226°
2026-05-08 14:40 35.97232 -12.67135 32740 ft 398 kts 226°
2026-05-08 14:41 35.93668 -12.71947 32737 ft 398 kts 226°
2026-05-08 14:41 35.90040 -12.76835 32740 ft 398 kts 226°
2026-05-08 14:42 35.86292 -12.81873 32740 ft 398 kts 226°
2026-05-08 14:42 35.82562 -12.86878 32744 ft 399 kts 226°
2026-05-08 14:43 35.78806 -12.91909 32749 ft 399 kts 226°
2026-05-08 14:43 35.75044 -12.96940 32748 ft 399 kts 226°
2026-05-08 14:44 35.71279 -13.01968 32746 ft 400 kts 226°
2026-05-08 14:44 35.67529 -13.06969 32744 ft 400 kts 226°
2026-05-08 14:45 35.63752 -13.11998 32750 ft 400 kts 227°
2026-05-08 14:45 35.59971 -13.17023 32745 ft 401 kts 227°
2026-05-08 14:46 35.56184 -13.22051 32741 ft 401 kts 227°
2026-05-08 14:46 35.52393 -13.27076 32752 ft 401 kts 227°
2026-05-08 14:47 35.48598 -13.32098 32751 ft 401 kts 227°
2026-05-08 14:47 35.44800 -13.37117 32754 ft 402 kts 227°
2026-05-08 14:48 35.40994 -13.42140 32755 ft 402 kts 227°
2026-05-08 14:48 35.37180 -13.47165 32745 ft 403 kts 227°
2026-05-08 14:49 35.33363 -13.52187 32742 ft 403 kts 227°
2026-05-08 14:49 35.29540 -13.57209 32751 ft 403 kts 227°
2026-05-08 14:50 35.25715 -13.62226 32750 ft 403 kts 227°
2026-05-08 14:50 35.21882 -13.67245 32755 ft 404 kts 227°
2026-05-08 14:51 35.18048 -13.72259 32754 ft 404 kts 227°
2026-05-08 14:51 35.14208 -13.77275 32746 ft 404 kts 227°
2026-05-08 14:52 35.08442 -13.84789 32752 ft 404 kts 227°
2026-05-08 14:53 35.04619 -13.89762 32762 ft 405 kts 227°
2026-05-08 14:53 35.00762 -13.94774 32754 ft 405 kts 227°
2026-05-08 14:54 34.96904 -13.99778 32749 ft 405 kts 227°
2026-05-08 14:54 34.93038 -14.04785 32761 ft 405 kts 227°
2026-05-08 14:55 34.89173 -14.09784 32759 ft 405 kts 227°
2026-05-08 14:55 34.85306 -14.14779 32765 ft 405 kts 227°
2026-05-08 14:56 34.81434 -14.19772 32760 ft 406 kts 227°
2026-05-08 14:56 34.77553 -14.24770 32766 ft 406 kts 227°
2026-05-08 14:57 34.73666 -14.29768 32755 ft 407 kts 227°
2026-05-08 14:57 34.69770 -14.34770 32764 ft 408 kts 228°
2026-05-08 14:58 34.65868 -14.39772 32770 ft 408 kts 228°
2026-05-08 14:58 34.61958 -14.44777 32770 ft 408 kts 228°
2026-05-08 14:59 34.58046 -14.49779 32779 ft 408 kts 228°
2026-05-08 14:59 34.52174 -14.57272 32777 ft 409 kts 228°
2026-05-08 15:00 34.48258 -14.62259 32776 ft 409 kts 228°
2026-05-08 15:00 34.44330 -14.67255 32773 ft 409 kts 228°
2026-05-08 15:01 34.40400 -14.72245 32777 ft 410 kts 228°
2026-05-08 15:01 34.36463 -14.77238 32781 ft 409 kts 228°
2026-05-08 15:02 34.32525 -14.82225 32785 ft 410 kts 228°
2026-05-08 15:02 34.28576 -14.87218 32784 ft 411 kts 228°
2026-05-08 15:03 34.24618 -14.92215 32788 ft 411 kts 228°
2026-05-08 15:03 34.20661 -14.97204 32785 ft 412 kts 228°
2026-05-08 15:04 34.16694 -15.02199 32789 ft 412 kts 229°
2026-05-08 15:04 34.12726 -15.07186 32795 ft 412 kts 229°
2026-05-08 15:05 34.08745 -15.12184 32792 ft 413 kts 229°
2026-05-08 15:05 34.04764 -15.17175 32793 ft 413 kts 229°
2026-05-08 15:06 34.00777 -15.22165 32810 ft 413 kts 229°
2026-05-08 15:06 33.96782 -15.27158 32816 ft 414 kts 229°
2026-05-08 15:07 33.92784 -15.32148 32808 ft 414 kts 229°
2026-05-08 15:07 33.88776 -15.37143 32794 ft 415 kts 229°
2026-05-08 15:08 33.85439 -15.41296 32803 ft 415 kts 229°
2026-05-08 15:08 33.81421 -15.46290 32806 ft 415 kts 229°
2026-05-08 15:09 33.77401 -15.51280 32808 ft 416 kts 229°
2026-05-08 15:09 33.73371 -15.56274 32807 ft 416 kts 229°
2026-05-08 15:10 33.69337 -15.61266 32808 ft 417 kts 229°
2026-05-08 15:10 33.65299 -15.66257 32812 ft 417 kts 229°
2026-05-08 15:11 33.61256 -15.71247 32814 ft 417 kts 229°
2026-05-08 15:11 33.57204 -15.76240 32821 ft 418 kts 229°
2026-05-08 15:12 33.53148 -15.81232 32822 ft 418 kts 229°
2026-05-08 15:12 33.49084 -15.86225 32820 ft 418 kts 230°
2026-05-08 15:13 33.45019 -15.91213 32826 ft 418 kts 230°
2026-05-08 15:13 33.40950 -15.96199 32828 ft 419 kts 230°
2026-05-08 15:14 33.36879 -16.01180 32829 ft 419 kts 230°
2026-05-08 15:14 33.32830 -16.06126 32830 ft 419 kts 230°
2026-05-08 15:15 33.28751 -16.11103 32834 ft 419 kts 230°
2026-05-08 15:15 33.24669 -16.16077 32831 ft 419 kts 230°
2026-05-08 15:16 33.20582 -16.21051 32831 ft 419 kts 230°
2026-05-08 15:16 33.16491 -16.26023 32828 ft 420 kts 230°
2026-05-08 15:17 33.12401 -16.30990 32825 ft 420 kts 230°
2026-05-08 15:17 33.08189 -16.35619 32830 ft 425 kts 224°
2026-05-08 15:18 33.03299 -16.39656 32830 ft 429 kts 219°
2026-05-08 15:18 32.98331 -16.43605 32832 ft 429 kts 220°
2026-05-08 15:19 32.93376 -16.47565 32816 ft 429 kts 220°
2026-05-08 15:19 32.88416 -16.51524 32822 ft 430 kts 220°
2026-05-08 15:20 32.83450 -16.55479 32841 ft 430 kts 220°
2026-05-08 15:20 32.78483 -16.59430 32836 ft 429 kts 220°
2026-05-08 15:21 32.73517 -16.63375 32836 ft 429 kts 220°
2026-05-08 15:21 32.68551 -16.67314 32829 ft 429 kts 220°
2026-05-08 15:22 32.63587 -16.71246 32830 ft 429 kts 220°
2026-05-08 15:22 32.58618 -16.75177 32830 ft 429 kts 220°
2026-05-08 15:23 32.53650 -16.79101 32838 ft 429 kts 220°
2026-05-08 15:23 32.48682 -16.83020 32848 ft 429 kts 220°
2026-05-08 15:24 32.43710 -16.86937 32860 ft 429 kts 220°
2026-05-08 15:24 32.38737 -16.90849 32865 ft 429 kts 220°
2026-05-08 15:25 32.33769 -16.94751 32897 ft 429 kts 220°
2026-05-08 15:25 32.28798 -16.98651 32891 ft 428 kts 220°
2026-05-08 15:26 32.23865 -17.02515 32896 ft 428 kts 220°
2026-05-08 15:26 32.18905 -17.06397 32890 ft 428 kts 220°
2026-05-08 15:27 32.13949 -17.10269 32896 ft 427 kts 220°
2026-05-08 15:27 32.08988 -17.14136 32899 ft 427 kts 221°
2026-05-08 15:28 32.04033 -17.17993 32901 ft 427 kts 221°
2026-05-08 15:28 31.99075 -17.21848 32904 ft 427 kts 221°
2026-05-08 15:29 31.94121 -17.25695 32903 ft 426 kts 221°
2026-05-08 15:29 31.89172 -17.29533 32907 ft 426 kts 221°
2026-05-08 15:30 31.84226 -17.33364 32914 ft 426 kts 221°
2026-05-08 15:30 31.79284 -17.37187 32912 ft 425 kts 221°
2026-05-08 15:31 31.74338 -17.41008 32919 ft 425 kts 221°
2026-05-08 15:31 31.69397 -17.44820 32917 ft 425 kts 221°
2026-05-08 15:32 31.64462 -17.48627 32916 ft 424 kts 221°
2026-05-08 15:32 31.59565 -17.52412 32924 ft 424 kts 222°
2026-05-08 15:33 31.54642 -17.56217 32937 ft 423 kts 222°
2026-05-08 15:33 31.49725 -17.60011 32924 ft 423 kts 222°
2026-05-08 15:34 31.44811 -17.63797 32929 ft 423 kts 222°
2026-05-08 15:34 31.39902 -17.67573 32932 ft 422 kts 222°
2026-05-08 15:35 31.34994 -17.71342 32933 ft 421 kts 222°
2026-05-08 15:35 31.30093 -17.75102 32933 ft 421 kts 222°
2026-05-08 15:36 31.26020 -17.78223 32934 ft 421 kts 223°
2026-05-08 15:36 31.20302 -17.82599 32936 ft 420 kts 223°
2026-05-08 15:37 31.15411 -17.86336 32953 ft 420 kts 223°
2026-05-08 15:37 31.10525 -17.90066 32956 ft 419 kts 223°
2026-05-08 15:38 31.05672 -17.93765 32945 ft 419 kts 223°
2026-05-08 15:38 31.00790 -17.97482 32945 ft 419 kts 223°
2026-05-08 15:39 30.95914 -18.01190 32948 ft 418 kts 223°
2026-05-08 15:39 30.91042 -18.04890 32962 ft 418 kts 223°
2026-05-08 15:40 30.86175 -18.08584 32955 ft 417 kts 224°
2026-05-08 15:40 30.81308 -18.12271 32953 ft 417 kts 224°
2026-05-08 15:41 30.76444 -18.15952 32959 ft 417 kts 224°
2026-05-08 15:41 30.71583 -18.19626 32959 ft 416 kts 224°
2026-05-08 15:42 30.66726 -18.23292 32967 ft 416 kts 224°
2026-05-08 15:42 30.61869 -18.26954 32969 ft 416 kts 224°
2026-05-08 15:43 30.57017 -18.30608 32967 ft 415 kts 224°
2026-05-08 15:43 30.52168 -18.34255 32966 ft 415 kts 224°
2026-05-08 15:44 30.47322 -18.37896 32984 ft 415 kts 224°
2026-05-08 15:44 30.42468 -18.41538 32970 ft 415 kts 224°
2026-05-08 15:45 30.37615 -18.45174 32969 ft 415 kts 224°
2026-05-08 15:45 30.32760 -18.48809 32971 ft 415 kts 224°
2026-05-08 15:46 30.27902 -18.52441 32974 ft 416 kts 224°
2026-05-08 15:46 30.23046 -18.56067 32978 ft 416 kts 224°
2026-05-08 15:47 30.18188 -18.59691 32985 ft 416 kts 224°
2026-05-08 15:47 30.13316 -18.63321 32992 ft 416 kts 224°
2026-05-08 15:48 30.06033 -18.68738 32983 ft 417 kts 224°
2026-05-08 15:49 30.01148 -18.72366 32981 ft 418 kts 224°
2026-05-08 15:49 29.96257 -18.75994 32986 ft 418 kts 224°
2026-05-08 15:50 29.91360 -18.79622 32995 ft 419 kts 224°
2026-05-08 15:50 29.86452 -18.83255 32995 ft 419 kts 224°
2026-05-08 15:51 29.81541 -18.86886 32996 ft 420 kts 224°
2026-05-08 15:51 29.76621 -18.90519 32995 ft 420 kts 224°
2026-05-08 15:52 29.71698 -18.94149 32996 ft 421 kts 224°
2026-05-08 15:52 29.66764 -18.97784 32998 ft 421 kts 224°
2026-05-08 15:53 29.61822 -19.01421 33006 ft 422 kts 224°
2026-05-08 15:53 29.56873 -19.05058 33006 ft 423 kts 224°
2026-05-08 15:54 29.51915 -19.08697 33010 ft 423 kts 224°
2026-05-08 15:54 29.46953 -19.12336 33018 ft 424 kts 224°
2026-05-08 15:55 29.41978 -19.15979 33010 ft 424 kts 224°
2026-05-08 15:55 29.35350 -19.20825 33008 ft 425 kts 224°
2026-05-08 15:56 29.30362 -19.24469 33008 ft 425 kts 224°
2026-05-08 15:56 29.25364 -19.28114 33013 ft 426 kts 224°
2026-05-08 15:57 29.20363 -19.31758 33011 ft 427 kts 223°
2026-05-08 15:57 29.15350 -19.35406 33020 ft 427 kts 223°
2026-05-08 15:58 29.10327 -19.39057 33018 ft 428 kts 223°
2026-05-08 15:58 29.05301 -19.42705 33013 ft 428 kts 223°
2026-05-08 15:59 29.00265 -19.46357 33011 ft 429 kts 223°
2026-05-08 15:59 28.95220 -19.50011 33025 ft 429 kts 223°
2026-05-08 16:00 28.90173 -19.53663 33025 ft 430 kts 223°
2026-05-08 16:00 28.85115 -19.57317 33025 ft 430 kts 223°
2026-05-08 16:01 28.80057 -19.60968 33031 ft 431 kts 223°
2026-05-08 16:01 28.74990 -19.64622 33034 ft 431 kts 223°
2026-05-08 16:02 28.69926 -19.68268 33030 ft 431 kts 223°
2026-05-08 16:02 28.64854 -19.71915 33031 ft 432 kts 223°
2026-05-08 16:03 28.59769 -19.75568 33035 ft 432 kts 223°
2026-05-08 16:03 28.54685 -19.79215 33035 ft 432 kts 223°
2026-05-08 16:04 28.49590 -19.82867 33035 ft 433 kts 223°
2026-05-08 16:04 28.44490 -19.86519 33036 ft 434 kts 223°
2026-05-08 16:05 28.39383 -19.90171 33038 ft 434 kts 223°
2026-05-08 16:05 28.34272 -19.93823 33038 ft 434 kts 222°
2026-05-08 16:06 28.29153 -19.97477 33050 ft 435 kts 222°
2026-05-08 16:06 28.24031 -20.01130 33050 ft 435 kts 222°
2026-05-08 16:07 28.18894 -20.04776 33042 ft 436 kts 222°
2026-05-08 16:07 28.13758 -20.08424 33039 ft 436 kts 222°
2026-05-08 16:08 28.08614 -20.12077 33042 ft 437 kts 222°
2026-05-08 16:08 28.03466 -20.15730 33045 ft 437 kts 221°
2026-05-08 16:09 27.98304 -20.19387 33043 ft 438 kts 221°
2026-05-08 16:09 27.93172 -20.23019 33044 ft 438 kts 221°
2026-05-08 16:10 27.88001 -20.26673 33046 ft 439 kts 221°
2026-05-08 16:10 27.82819 -20.30331 33049 ft 439 kts 221°
2026-05-08 16:11 27.77626 -20.33992 33050 ft 440 kts 221°
2026-05-08 16:11 27.72428 -20.37653 33053 ft 441 kts 221°
2026-05-08 16:12 27.67219 -20.41317 33073 ft 441 kts 221°
2026-05-08 16:12 27.62004 -20.44981 33066 ft 442 kts 221°
2026-05-08 16:13 27.56783 -20.48645 33055 ft 443 kts 221°
2026-05-08 16:13 27.51549 -20.52314 33050 ft 443 kts 221°
2026-05-08 16:14 27.46312 -20.55981 33062 ft 443 kts 221°
2026-05-08 16:14 27.41070 -20.59647 33058 ft 444 kts 220°
2026-05-08 16:15 27.35822 -20.63314 33060 ft 444 kts 220°
2026-05-08 16:15 27.30569 -20.66980 33060 ft 445 kts 220°
2026-05-08 16:16 27.25305 -20.70650 33060 ft 445 kts 220°
2026-05-08 16:16 27.20034 -20.74319 33068 ft 446 kts 220°
2026-05-08 16:17 27.15650 -20.77368 33066 ft 446 kts 220°
2026-05-08 16:17 27.09478 -20.81657 33064 ft 447 kts 220°
2026-05-08 16:18 27.04193 -20.85324 33064 ft 447 kts 220°
2026-05-08 16:18 26.98899 -20.88994 33066 ft 447 kts 220°
2026-05-08 16:19 26.93600 -20.92663 33067 ft 448 kts 220°
2026-05-08 16:19 26.88293 -20.96334 33065 ft 448 kts 220°
2026-05-08 16:20 26.82980 -21.00004 33068 ft 449 kts 220°
2026-05-08 16:20 26.77660 -21.03675 33071 ft 449 kts 220°
2026-05-08 16:21 26.72365 -21.07325 33070 ft 450 kts 219°
2026-05-08 16:21 26.67035 -21.10995 33073 ft 450 kts 219°
2026-05-08 16:22 26.61695 -21.14668 33068 ft 451 kts 219°
2026-05-08 16:22 26.56351 -21.18339 33081 ft 451 kts 219°
2026-05-08 16:23 26.50995 -21.22015 33078 ft 452 kts 219°
2026-05-08 16:23 26.45634 -21.25689 33075 ft 452 kts 219°
2026-05-08 16:24 26.40269 -21.29363 33075 ft 453 kts 219°
2026-05-08 16:24 26.34894 -21.33040 33074 ft 453 kts 219°
2026-05-08 16:25 26.29514 -21.36715 33075 ft 454 kts 219°
2026-05-08 16:25 26.24128 -21.40391 33074 ft 454 kts 219°
2026-05-08 16:26 26.18736 -21.44066 33077 ft 455 kts 219°
2026-05-08 16:26 26.13337 -21.47743 33079 ft 455 kts 219°
2026-05-08 16:27 26.07937 -21.51416 33077 ft 455 kts 218°
2026-05-08 16:27 26.02530 -21.55090 33080 ft 456 kts 218°
2026-05-08 16:28 25.97117 -21.58764 33081 ft 456 kts 218°
2026-05-08 16:28 25.91694 -21.62441 33078 ft 457 kts 218°
2026-05-08 16:29 25.86268 -21.66115 33076 ft 457 kts 218°
2026-05-08 16:29 25.80839 -21.69789 33079 ft 457 kts 218°
2026-05-08 16:30 25.75402 -21.73463 33071 ft 458 kts 218°
2026-05-08 16:30 25.69990 -21.77116 33080 ft 458 kts 218°
2026-05-08 16:31 25.64538 -21.80793 33080 ft 459 kts 218°
2026-05-08 16:31 25.59080 -21.84470 33082 ft 459 kts 218°
2026-05-08 16:32 25.53622 -21.88141 33087 ft 459 kts 217°
2026-05-08 16:32 25.48158 -21.91813 33100 ft 459 kts 217°
2026-05-08 16:33 25.42689 -21.95485 33094 ft 460 kts 217°
2026-05-08 16:33 25.37213 -21.99158 33067 ft 460 kts 217°
2026-05-08 16:34 25.31732 -22.02830 33071 ft 461 kts 217°
2026-05-08 16:34 25.26248 -22.06501 33087 ft 461 kts 217°
2026-05-08 16:35 25.20761 -22.10169 33086 ft 461 kts 217°
2026-05-08 16:35 25.15264 -22.13840 33087 ft 462 kts 217°
2026-05-08 16:36 25.09764 -22.17509 33085 ft 462 kts 217°
2026-05-08 16:36 25.04257 -22.21179 33086 ft 463 kts 217°
2026-05-08 16:37 24.98742 -22.24850 33087 ft 463 kts 217°
2026-05-08 16:37 24.93226 -22.28518 33088 ft 463 kts 217°
2026-05-08 16:38 24.87703 -22.32187 33091 ft 464 kts 217°
2026-05-08 16:38 24.82174 -22.35856 33084 ft 464 kts 216°
2026-05-08 16:39 24.76639 -22.39525 33088 ft 465 kts 216°
2026-05-08 16:39 24.71136 -22.43171 33090 ft 465 kts 216°
2026-05-08 16:40 24.65593 -22.46840 33086 ft 465 kts 216°
2026-05-08 16:40 24.60044 -22.50506 33089 ft 466 kts 216°
2026-05-08 16:41 24.54485 -22.54171 33091 ft 466 kts 216°
2026-05-08 16:42 24.47084 -22.59051 33092 ft 466 kts 216°
2026-05-08 16:42 24.41519 -22.62715 33093 ft 467 kts 216°
2026-05-08 16:43 24.35946 -22.66381 33090 ft 467 kts 216°
2026-05-08 16:43 24.30369 -22.70045 33091 ft 467 kts 216°
2026-05-08 16:44 24.24790 -22.73707 33089 ft 468 kts 216°
2026-05-08 16:44 24.19202 -22.77371 33089 ft 468 kts 216°
2026-05-08 16:45 24.13611 -22.81034 33090 ft 468 kts 216°
2026-05-08 16:45 24.08020 -22.84692 33088 ft 469 kts 216°
2026-05-08 16:46 24.02415 -22.88356 33092 ft 469 kts 216°
2026-05-08 16:46 23.97388 -22.91639 33089 ft 469 kts 216°
2026-05-08 16:47 23.91812 -22.95277 33091 ft 470 kts 216°
2026-05-08 16:47 23.86193 -22.98940 33234 ft 471 kts 216°
2026-05-08 16:47 23.83382 -23.00770 33416 ft 470 kts 216°
2026-05-08 16:48 23.80572 -23.02598 33597 ft 470 kts 216°
2026-05-08 16:48 23.77766 -23.04424 33781 ft 469 kts 216°
2026-05-08 16:48 23.74964 -23.06246 33956 ft 469 kts 216°
2026-05-08 16:48 23.72161 -23.08067 34125 ft 468 kts 216°
2026-05-08 16:49 23.69361 -23.09886 34278 ft 468 kts 216°
2026-05-08 16:49 23.66585 -23.11689 34409 ft 468 kts 216°
2026-05-08 16:49 23.63786 -23.13505 34547 ft 468 kts 216°
2026-05-08 16:49 23.60990 -23.15319 34674 ft 468 kts 216°
2026-05-08 16:50 23.58192 -23.17134 34821 ft 468 kts 216°
2026-05-08 16:50 23.55393 -23.18947 34933 ft 468 kts 216°
2026-05-08 16:50 23.52600 -23.20756 35062 ft 468 kts 216°
2026-05-08 16:51 23.47004 -23.24377 35092 ft 467 kts 216°
2026-05-08 16:51 23.41411 -23.27993 35094 ft 467 kts 216°
2026-05-08 16:52 23.35815 -23.31608 35086 ft 468 kts 216°
2026-05-08 16:52 23.30210 -23.35225 35087 ft 468 kts 216°
2026-05-08 16:53 23.21798 -23.40646 35090 ft 469 kts 216°
2026-05-08 16:53 23.16180 -23.44262 35089 ft 469 kts 216°
2026-05-08 16:54 23.10591 -23.47856 35092 ft 470 kts 215°
2026-05-08 16:54 23.04962 -23.51472 35089 ft 470 kts 215°
2026-05-08 16:55 22.99328 -23.55088 35093 ft 471 kts 215°
2026-05-08 16:55 22.93689 -23.58703 35090 ft 471 kts 215°
2026-05-08 16:56 22.88046 -23.62317 35093 ft 471 kts 215°
2026-05-08 16:56 22.82400 -23.65929 35091 ft 471 kts 215°
2026-05-08 16:57 22.76748 -23.69544 35091 ft 472 kts 215°
2026-05-08 16:57 22.71097 -23.73157 35090 ft 472 kts 215°
2026-05-08 16:58 22.65450 -23.76764 35091 ft 472 kts 215°
2026-05-08 16:58 22.59791 -23.80373 35090 ft 472 kts 215°
2026-05-08 16:59 22.54128 -23.83981 35093 ft 472 kts 215°
2026-05-08 16:59 22.48468 -23.87584 35090 ft 472 kts 215°
2026-05-08 17:00 22.42801 -23.91188 35091 ft 473 kts 215°
2026-05-08 17:00 22.37135 -23.94788 35089 ft 473 kts 215°
2026-05-08 17:01 22.31462 -23.98388 35093 ft 473 kts 214°
2026-05-08 17:01 22.25788 -24.01986 35095 ft 473 kts 214°
2026-05-08 17:02 22.20106 -24.05586 35088 ft 473 kts 214°
2026-05-08 17:02 22.14435 -24.09176 35088 ft 473 kts 214°
2026-05-08 17:03 22.08762 -24.12763 35093 ft 473 kts 214°
2026-05-08 17:03 22.03084 -24.16350 35090 ft 473 kts 214°
2026-05-08 17:04 21.97405 -24.19933 35086 ft 473 kts 214°
2026-05-08 17:04 21.91726 -24.23514 35086 ft 473 kts 214°
2026-05-08 17:05 21.86056 -24.27090 35085 ft 473 kts 214°
2026-05-08 17:05 21.80380 -24.30670 35082 ft 472 kts 214°
2026-05-08 17:06 21.74707 -24.34238 35079 ft 472 kts 214°
2026-05-08 17:06 21.69033 -24.37801 35083 ft 472 kts 214°
2026-05-08 17:07 21.63356 -24.41362 35083 ft 472 kts 214°
2026-05-08 17:07 21.57683 -24.44918 35082 ft 472 kts 214°
2026-05-08 17:08 21.51999 -24.48470 35081 ft 472 kts 214°
2026-05-08 17:08 21.46322 -24.52021 35080 ft 472 kts 214°
2026-05-08 17:09 21.40645 -24.55571 35075 ft 472 kts 214°
2026-05-08 17:09 21.34970 -24.59116 35071 ft 472 kts 214°
2026-05-08 17:10 21.29329 -24.62637 35094 ft 472 kts 214°
2026-05-08 17:10 21.23653 -24.66178 35086 ft 472 kts 214°
2026-05-08 17:11 21.17975 -24.69715 35085 ft 472 kts 214°
2026-05-08 17:11 21.12299 -24.73249 35081 ft 472 kts 214°
2026-05-08 17:12 21.06619 -24.76781 35082 ft 472 kts 214°
2026-05-08 17:12 21.00944 -24.80308 35075 ft 472 kts 214°
2026-05-08 17:13 20.95263 -24.83835 35075 ft 472 kts 214°
2026-05-08 17:13 20.89579 -24.87361 35076 ft 472 kts 214°
2026-05-08 17:14 20.83899 -24.90881 35073 ft 472 kts 214°
2026-05-08 17:14 20.78215 -24.94401 35074 ft 472 kts 214°
2026-05-08 17:15 20.72526 -24.97920 35075 ft 472 kts 214°
2026-05-08 17:15 20.66875 -25.01413 35077 ft 473 kts 214°
2026-05-08 17:16 20.61184 -25.04928 35074 ft 473 kts 214°
2026-05-08 17:16 20.55490 -25.08442 35075 ft 473 kts 213°
2026-05-08 17:17 20.49795 -25.11953 35073 ft 473 kts 213°
2026-05-08 17:17 20.44093 -25.15465 35073 ft 473 kts 213°
2026-05-08 17:18 20.38393 -25.18973 35073 ft 473 kts 213°
2026-05-08 17:18 20.32687 -25.22481 35074 ft 474 kts 213°
2026-05-08 17:19 20.26978 -25.25989 35073 ft 474 kts 213°
2026-05-08 17:19 20.21259 -25.29500 35074 ft 474 kts 213°
2026-05-08 17:20 20.15544 -25.33005 35074 ft 474 kts 213°
2026-05-08 17:20 20.10019 -25.36391 35068 ft 475 kts 213°
2026-05-08 17:21 20.04296 -25.39895 35076 ft 475 kts 213°
2026-05-08 17:21 19.98561 -25.43404 35072 ft 475 kts 213°
2026-05-08 17:22 19.92870 -25.46883 35070 ft 475 kts 213°
2026-05-08 17:22 19.87137 -25.50384 35067 ft 476 kts 213°
2026-05-08 17:23 19.81419 -25.53872 35058 ft 470 kts 213°
2026-05-08 17:23 19.75754 -25.57327 35069 ft 470 kts 213°
2026-05-08 17:24 19.70081 -25.60784 35070 ft 470 kts 213°
2026-05-08 17:24 19.64401 -25.64242 35069 ft 471 kts 213°
2026-05-08 17:25 19.58720 -25.67697 35065 ft 471 kts 213°
2026-05-08 17:25 19.53040 -25.71149 35070 ft 471 kts 213°
2026-05-08 17:26 19.47348 -25.74605 35066 ft 471 kts 213°
2026-05-08 17:26 19.42090 -25.77796 35070 ft 472 kts 213°
2026-05-08 17:27 19.36395 -25.81248 35071 ft 472 kts 213°
2026-05-08 17:27 19.30691 -25.84704 35067 ft 472 kts 213°
2026-05-08 17:28 19.24995 -25.88151 35067 ft 472 kts 213°
2026-05-08 17:28 19.19332 -25.91576 35068 ft 472 kts 213°
2026-05-08 17:29 19.13632 -25.95021 35064 ft 472 kts 213°
2026-05-08 17:29 19.07927 -25.98466 35061 ft 472 kts 213°
2026-05-08 17:30 19.02225 -26.01908 35066 ft 472 kts 213°
2026-05-08 17:30 18.96518 -26.05350 35062 ft 472 kts 213°
2026-05-08 17:31 18.91773 -26.08201 35056 ft 472 kts 212°
2026-05-08 17:31 18.86051 -26.11612 35056 ft 472 kts 212°
2026-05-08 17:32 18.80331 -26.15026 35059 ft 472 kts 212°
2026-05-08 17:32 18.74618 -26.18438 35059 ft 472 kts 212°
2026-05-08 17:33 18.68896 -26.21852 35057 ft 472 kts 212°
2026-05-08 17:33 18.63174 -26.25264 35054 ft 472 kts 212°
2026-05-08 17:34 18.57455 -26.28670 35052 ft 472 kts 212°
2026-05-08 17:34 18.51731 -26.32076 35052 ft 472 kts 212°
2026-05-08 17:35 18.46006 -26.35481 35051 ft 473 kts 212°
2026-05-08 17:35 18.40276 -26.38886 35049 ft 473 kts 212°
2026-05-08 17:36 18.34544 -26.42289 35050 ft 473 kts 212°
2026-05-08 17:36 18.28813 -26.45689 35052 ft 473 kts 212°
2026-05-08 17:37 18.23077 -26.49089 35047 ft 473 kts 212°
2026-05-08 17:37 18.17336 -26.52490 35046 ft 473 kts 212°
2026-05-08 17:38 18.11628 -26.55869 35047 ft 473 kts 212°
2026-05-08 17:38 18.05889 -26.59263 35049 ft 474 kts 212°
2026-05-08 17:39 18.00142 -26.62660 35046 ft 474 kts 212°
2026-05-08 17:39 17.94391 -26.66056 35045 ft 474 kts 212°
2026-05-08 17:40 17.88641 -26.69450 35044 ft 474 kts 212°
2026-05-08 17:40 17.82885 -26.72844 35044 ft 474 kts 212°
2026-05-08 17:41 17.77128 -26.76236 35041 ft 475 kts 212°
2026-05-08 17:41 17.71367 -26.79628 35039 ft 475 kts 212°
2026-05-08 17:42 17.65602 -26.83020 35039 ft 475 kts 212°
2026-05-08 17:42 17.59833 -26.86411 35037 ft 475 kts 212°
2026-05-08 17:43 17.54062 -26.89802 35038 ft 476 kts 212°
2026-05-08 17:43 17.48288 -26.93192 35039 ft 476 kts 212°
2026-05-08 17:44 17.42512 -26.96580 35041 ft 476 kts 211°
2026-05-08 17:44 17.36736 -26.99965 35039 ft 476 kts 211°
2026-05-08 17:45 17.30956 -27.03351 35033 ft 476 kts 211°
2026-05-08 17:45 17.25212 -27.06713 35032 ft 476 kts 211°
2026-05-08 17:46 17.19430 -27.10095 35034 ft 476 kts 211°
2026-05-08 17:46 17.13647 -27.13475 35034 ft 476 kts 211°
2026-05-08 17:47 17.07857 -27.16857 35033 ft 476 kts 211°
2026-05-08 17:47 17.03049 -27.19664 35033 ft 476 kts 211°
2026-05-08 17:48 16.96283 -27.23610 35026 ft 477 kts 211°
2026-05-08 17:48 16.90490 -27.26986 35024 ft 477 kts 211°
2026-05-08 17:49 16.84696 -27.30361 35020 ft 477 kts 211°
2026-05-08 17:49 16.78903 -27.33733 35022 ft 477 kts 211°
2026-05-08 17:50 16.73107 -27.37103 35039 ft 477 kts 211°
2026-05-08 17:50 16.67312 -27.40471 35030 ft 477 kts 211°
2026-05-08 17:51 16.61514 -27.43839 35032 ft 477 kts 211°
2026-05-08 17:51 16.55712 -27.47206 35017 ft 477 kts 211°
2026-05-08 17:52 16.49912 -27.50569 35016 ft 477 kts 211°
2026-05-08 17:53 16.41244 -27.55593 35028 ft 477 kts 211°
2026-05-08 17:53 16.35438 -27.58954 35026 ft 478 kts 211°
2026-05-08 17:54 16.29627 -27.62316 35026 ft 478 kts 211°
2026-05-08 17:54 16.23815 -27.65676 35016 ft 478 kts 211°
2026-05-08 17:55 16.18006 -27.69032 35023 ft 478 kts 211°
2026-05-08 17:55 16.12193 -27.72388 35022 ft 478 kts 211°
2026-05-08 17:56 16.06375 -27.75745 35025 ft 478 kts 211°
2026-05-08 17:56 16.00560 -27.79098 35016 ft 478 kts 211°
2026-05-08 17:57 15.94750 -27.82446 35018 ft 478 kts 211°
2026-05-08 17:57 15.88927 -27.85799 35017 ft 478 kts 211°
2026-05-08 17:58 15.83151 -27.89123 35021 ft 478 kts 211°
2026-05-08 17:58 15.77332 -27.92469 35020 ft 478 kts 211°
2026-05-08 17:59 15.71516 -27.95811 35022 ft 478 kts 211°
2026-05-08 17:59 15.65698 -27.99153 35018 ft 478 kts 211°
2026-05-08 18:00 15.59877 -28.02494 35008 ft 478 kts 211°
2026-05-08 18:00 15.51146 -28.07501 35011 ft 478 kts 211°
2026-05-08 18:01 15.45322 -28.10838 35006 ft 478 kts 211°
2026-05-08 18:01 15.39496 -28.14174 35004 ft 478 kts 211°
2026-05-08 18:02 15.34652 -28.16946 35007 ft 478 kts 211°
2026-05-08 18:02 15.27882 -28.20818 35006 ft 479 kts 211°
2026-05-08 18:03 15.22051 -28.24151 35011 ft 479 kts 211°
2026-05-08 18:03 15.16220 -28.27481 35008 ft 479 kts 211°
2026-05-08 18:04 15.10384 -28.30812 35004 ft 479 kts 211°
2026-05-08 18:04 15.04552 -28.34139 35004 ft 479 kts 211°
2026-05-08 18:05 14.98713 -28.37468 35001 ft 479 kts 211°
2026-05-08 18:05 14.92878 -28.40792 35001 ft 479 kts 211°
2026-05-08 18:06 14.87041 -28.44117 35003 ft 479 kts 211°
2026-05-08 18:06 14.81203 -28.47440 34995 ft 479 kts 211°
2026-05-08 18:07 14.75369 -28.50782 34998 ft 479 kts 211°
2026-05-08 18:07 14.69553 -28.54136 34997 ft 479 kts 211°
2026-05-08 18:08 14.63769 -28.57467 34995 ft 479 kts 211°
2026-05-08 18:08 14.57944 -28.60818 35000 ft 479 kts 211°
2026-05-08 18:09 14.52121 -28.64165 34992 ft 479 kts 211°
2026-05-08 18:09 14.46286 -28.67516 35170 ft 480 kts 211°
2026-05-08 18:10 14.43366 -28.69192 35318 ft 479 kts 211°
2026-05-08 18:10 14.40456 -28.70861 35457 ft 479 kts 211°
2026-05-08 18:10 14.37545 -28.72531 35591 ft 479 kts 211°
2026-05-08 18:10 14.34636 -28.74200 35732 ft 478 kts 211°
2026-05-08 18:11 14.31732 -28.75865 35877 ft 478 kts 211°
2026-05-08 18:11 14.28829 -28.77529 35984 ft 478 kts 211°
2026-05-08 18:11 14.23029 -28.80852 35988 ft 476 kts 211°
2026-05-08 18:12 14.17238 -28.84168 35991 ft 476 kts 211°
2026-05-08 18:12 14.11443 -28.87484 35991 ft 476 kts 211°
2026-05-08 18:13 14.05694 -28.90771 35986 ft 476 kts 211°
2026-05-08 18:13 13.99905 -28.94080 35987 ft 476 kts 211°
2026-05-08 18:14 13.94114 -28.97388 35985 ft 475 kts 211°
2026-05-08 18:14 13.88326 -29.00692 35986 ft 475 kts 211°
2026-05-08 18:15 13.82546 -29.03991 35982 ft 475 kts 211°
2026-05-08 18:15 13.76761 -29.07290 35986 ft 475 kts 211°
2026-05-08 18:16 13.70970 -29.10590 35986 ft 475 kts 211°
2026-05-08 18:16 13.65193 -29.13880 35982 ft 475 kts 211°
2026-05-08 18:17 13.59413 -29.17171 35983 ft 475 kts 211°
2026-05-08 18:17 13.53673 -29.20437 35981 ft 475 kts 211°
2026-05-08 18:18 13.47897 -29.23721 35978 ft 474 kts 211°
2026-05-08 18:18 13.42121 -29.27004 35980 ft 474 kts 211°
2026-05-08 18:19 13.36347 -29.30283 35978 ft 474 kts 211°
2026-05-08 18:19 13.30573 -29.33562 35977 ft 474 kts 211°
2026-05-08 18:20 13.24798 -29.36838 35980 ft 474 kts 211°
2026-05-08 18:20 13.19029 -29.40109 35975 ft 474 kts 211°
2026-05-08 18:21 13.13260 -29.43379 35979 ft 474 kts 211°
2026-05-08 18:21 13.07490 -29.46647 35979 ft 473 kts 211°
2026-05-08 18:22 13.01727 -29.49910 35980 ft 473 kts 211°
2026-05-08 18:22 12.96936 -29.52620 35977 ft 473 kts 211°
2026-05-08 18:23 12.90241 -29.56406 35976 ft 473 kts 211°
2026-05-08 18:23 12.84486 -29.59659 35975 ft 472 kts 212°
2026-05-08 18:24 12.79668 -29.62381 35977 ft 472 kts 212°
2026-05-08 18:24 12.73909 -29.65632 35975 ft 472 kts 212°
2026-05-08 18:25 12.68200 -29.68854 35976 ft 472 kts 212°
2026-05-08 18:25 12.62455 -29.72095 35987 ft 471 kts 212°
2026-05-08 18:26 12.56714 -29.75332 35990 ft 471 kts 212°
2026-05-08 18:26 12.50973 -29.78567 35972 ft 471 kts 212°
2026-05-08 18:27 12.46170 -29.81273 35984 ft 470 kts 212°
2026-05-08 18:27 12.39512 -29.85021 35959 ft 470 kts 212°
2026-05-08 18:28 12.33783 -29.88244 35960 ft 470 kts 212°
2026-05-08 18:28 12.28063 -29.91462 35978 ft 469 kts 212°
2026-05-08 18:29 12.22345 -29.94679 35977 ft 469 kts 212°
2026-05-08 18:29 12.16631 -29.97891 35979 ft 468 kts 212°
2026-05-08 18:30 12.10917 -30.01100 35975 ft 468 kts 212°
2026-05-08 18:30 12.05208 -30.04304 35971 ft 468 kts 212°
2026-05-08 18:31 11.99501 -30.07505 35955 ft 468 kts 212°
2026-05-08 18:31 11.93800 -30.10701 35955 ft 467 kts 212°
2026-05-08 18:32 11.88099 -30.13896 35974 ft 467 kts 212°
2026-05-08 18:32 11.82403 -30.17087 35971 ft 467 kts 212°
2026-05-08 18:33 11.76750 -30.20252 35964 ft 467 kts 212°
2026-05-08 18:33 11.71059 -30.23437 35968 ft 466 kts 212°
2026-05-08 18:34 11.65375 -30.26617 35960 ft 466 kts 212°
2026-05-08 18:34 11.59694 -30.29793 35963 ft 466 kts 212°
2026-05-08 18:35 11.54013 -30.32968 35960 ft 465 kts 212°
2026-05-08 18:35 11.48337 -30.36139 35962 ft 465 kts 212°
2026-05-08 18:36 11.42661 -30.39308 35961 ft 465 kts 212°
2026-05-08 18:36 11.36984 -30.42476 35957 ft 465 kts 212°
2026-05-08 18:37 11.31311 -30.45641 35960 ft 465 kts 212°
2026-05-08 18:37 11.25636 -30.48805 35961 ft 465 kts 212°
2026-05-08 18:38 11.19965 -30.51966 35959 ft 465 kts 212°
2026-05-08 18:38 11.14290 -30.55122 35955 ft 465 kts 212°
2026-05-08 18:39 11.08613 -30.58280 35962 ft 465 kts 212°
2026-05-08 18:39 11.02942 -30.61437 35957 ft 465 kts 212°
2026-05-08 18:40 10.97263 -30.64599 35956 ft 465 kts 212°
2026-05-08 18:40 10.91588 -30.67755 35961 ft 465 kts 212°
2026-05-08 18:41 10.85906 -30.70914 35960 ft 465 kts 212°
2026-05-08 18:41 10.80268 -30.74048 35958 ft 465 kts 212°
2026-05-08 18:42 10.74588 -30.77209 35961 ft 465 kts 212°
2026-05-08 18:42 10.68918 -30.80391 35958 ft 465 kts 212°
2026-05-08 18:43 10.63247 -30.83572 35955 ft 465 kts 212°
2026-05-08 18:43 10.57579 -30.86746 35955 ft 466 kts 212°
2026-05-08 18:44 10.51881 -30.89894 35955 ft 466 kts 211°
2026-05-08 18:44 10.46176 -30.93030 35958 ft 466 kts 211°
2026-05-08 18:45 10.40477 -30.96169 35959 ft 466 kts 211°
2026-05-08 18:45 10.34774 -30.99310 35955 ft 466 kts 211°
2026-05-08 18:46 10.29066 -31.02453 35955 ft 466 kts 211°
2026-05-08 18:46 10.23363 -31.05593 35952 ft 467 kts 211°
2026-05-08 18:47 10.17650 -31.08736 35952 ft 467 kts 211°
2026-05-08 18:47 10.11942 -31.11874 35949 ft 467 kts 211°
2026-05-08 18:48 10.06231 -31.15013 35948 ft 467 kts 211°
2026-05-08 18:48 10.00516 -31.18154 35951 ft 467 kts 211°
2026-05-08 18:49 9.94800 -31.21294 35950 ft 467 kts 211°
2026-05-08 18:49 9.89075 -31.24438 35949 ft 468 kts 211°
2026-05-08 18:50 9.83353 -31.27579 35951 ft 468 kts 211°
2026-05-08 18:50 9.77630 -31.30719 35948 ft 468 kts 211°
2026-05-08 18:51 9.71903 -31.33860 35947 ft 468 kts 211°
2026-05-08 18:51 9.66173 -31.37001 35946 ft 468 kts 211°
2026-05-08 18:52 9.60441 -31.40142 35947 ft 468 kts 211°
2026-05-08 18:52 9.54708 -31.43282 35943 ft 469 kts 211°
2026-05-08 18:53 9.48970 -31.46424 35944 ft 469 kts 211°
2026-05-08 18:53 9.43274 -31.49543 35947 ft 469 kts 211°
2026-05-08 18:54 9.37533 -31.52685 35949 ft 469 kts 211°
2026-05-08 18:54 9.31798 -31.55822 35947 ft 469 kts 211°
2026-05-08 18:55 9.23188 -31.60529 35945 ft 469 kts 210°
2026-05-08 18:56 9.17451 -31.63663 35943 ft 469 kts 210°
2026-05-08 18:56 9.11706 -31.66800 35940 ft 469 kts 210°
2026-05-08 18:57 9.05963 -31.69935 35939 ft 469 kts 210°
2026-05-08 18:57 9.00209 -31.73076 35940 ft 470 kts 210°
2026-05-08 18:58 8.94496 -31.76193 35939 ft 470 kts 210°
2026-05-08 18:58 8.88743 -31.79331 35936 ft 470 kts 210°
2026-05-08 18:59 8.83490 -31.82195 35939 ft 470 kts 210°
2026-05-08 18:59 8.77728 -31.85336 35937 ft 470 kts 210°
2026-05-08 19:00 8.72004 -31.88455 35937 ft 470 kts 210°
2026-05-08 19:00 8.66244 -31.91592 35936 ft 471 kts 210°
2026-05-08 19:01 8.60473 -31.94734 35941 ft 471 kts 210°
2026-05-08 19:01 8.54706 -31.97873 35939 ft 471 kts 210°
2026-05-08 19:02 8.48939 -32.01010 35941 ft 471 kts 210°
2026-05-08 19:02 8.43168 -32.04149 35942 ft 471 kts 210°
2026-05-08 19:03 8.37398 -32.07287 35940 ft 471 kts 210°
2026-05-08 19:03 8.31619 -32.10428 35937 ft 472 kts 210°
2026-05-08 19:04 8.25879 -32.13547 35939 ft 472 kts 210°
2026-05-08 19:04 8.20101 -32.16685 35940 ft 472 kts 210°
2026-05-08 19:05 8.14323 -32.19822 35942 ft 472 kts 210°
2026-05-08 19:05 8.08542 -32.22960 35940 ft 472 kts 210°
2026-05-08 19:06 8.02764 -32.26096 35940 ft 472 kts 210°
2026-05-08 19:06 7.96976 -32.29235 35939 ft 472 kts 210°
2026-05-08 19:07 7.91195 -32.32370 35936 ft 472 kts 209°
2026-05-08 19:07 7.85410 -32.35506 35936 ft 472 kts 209°
2026-05-08 19:08 7.79630 -32.38638 35939 ft 472 kts 209°
2026-05-08 19:08 7.73839 -32.41776 35939 ft 472 kts 209°
2026-05-08 19:09 7.68058 -32.44907 35935 ft 472 kts 209°
2026-05-08 19:09 7.62274 -32.48038 35937 ft 472 kts 209°
2026-05-08 19:10 7.56495 -32.51166 35936 ft 472 kts 209°
2026-05-08 19:10 7.50751 -32.54274 35935 ft 472 kts 209°
2026-05-08 19:11 7.44965 -32.57403 35933 ft 472 kts 209°
2026-05-08 19:11 7.39182 -32.60530 35936 ft 472 kts 209°
2026-05-08 19:12 7.33400 -32.63656 35936 ft 472 kts 209°
2026-05-08 19:12 7.27616 -32.66781 35936 ft 472 kts 209°
2026-05-08 19:13 7.21835 -32.69906 35933 ft 472 kts 209°
2026-05-08 19:13 7.16043 -32.73034 35930 ft 472 kts 209°
2026-05-08 19:14 7.10254 -32.76160 35934 ft 472 kts 209°
2026-05-08 19:14 7.04461 -32.79287 35934 ft 472 kts 209°
2026-05-08 19:15 6.98671 -32.82411 35932 ft 473 kts 209°
2026-05-08 19:15 6.92872 -32.85539 35934 ft 473 kts 209°
2026-05-08 19:16 6.87078 -32.88664 35937 ft 473 kts 209°
2026-05-08 19:16 6.81319 -32.91770 35935 ft 473 kts 209°
2026-05-08 19:17 6.75523 -32.94893 35934 ft 473 kts 209°
2026-05-08 19:17 6.69728 -32.98016 35936 ft 473 kts 209°
2026-05-08 19:18 6.63929 -33.01141 35931 ft 473 kts 209°
2026-05-08 19:18 6.58130 -33.04264 35931 ft 473 kts 209°
2026-05-08 19:19 6.52335 -33.07385 35934 ft 473 kts 209°
2026-05-08 19:19 6.46534 -33.10508 35929 ft 473 kts 209°
2026-05-08 19:20 6.40735 -33.13629 35932 ft 473 kts 209°
2026-05-08 19:20 6.34938 -33.16748 35931 ft 473 kts 209°
2026-05-08 19:21 6.29136 -33.19861 35930 ft 473 kts 209°
2026-05-08 19:21 6.23328 -33.22963 35926 ft 473 kts 209°
2026-05-08 19:22 6.17513 -33.26072 35926 ft 473 kts 209°
2026-05-08 19:22 6.11703 -33.29179 35926 ft 473 kts 209°
2026-05-08 19:23 6.05881 -33.32292 35926 ft 474 kts 209°
2026-05-08 19:23 6.00059 -33.35403 35922 ft 474 kts 209°
2026-05-08 19:24 5.94236 -33.38515 35924 ft 474 kts 209°
2026-05-08 19:24 5.88738 -33.41452 35928 ft 474 kts 209°
2026-05-08 19:25 5.82909 -33.44565 35929 ft 474 kts 209°
2026-05-08 19:25 5.77124 -33.47654 35926 ft 474 kts 209°
2026-05-08 19:26 5.71298 -33.50764 35929 ft 474 kts 209°
2026-05-08 19:26 5.65468 -33.53876 35927 ft 474 kts 209°
2026-05-08 19:27 5.59649 -33.56982 35927 ft 474 kts 209°
2026-05-08 19:27 5.53829 -33.60098 35926 ft 474 kts 209°
2026-05-08 19:28 5.48012 -33.63203 35925 ft 474 kts 209°
2026-05-08 19:28 5.42186 -33.66307 35927 ft 473 kts 209°
2026-05-08 19:29 5.36371 -33.69404 35930 ft 473 kts 209°
2026-05-08 19:29 5.30556 -33.72503 35921 ft 473 kts 209°
2026-05-08 19:30 5.24741 -33.75600 35923 ft 473 kts 209°
2026-05-08 19:30 5.18928 -33.78696 35919 ft 473 kts 209°
2026-05-08 19:31 5.13113 -33.81793 35920 ft 473 kts 209°
2026-05-08 19:31 5.07293 -33.84891 35919 ft 473 kts 209°
2026-05-08 19:32 5.01469 -33.87990 35920 ft 474 kts 209°
2026-05-08 19:32 4.95649 -33.91081 35920 ft 474 kts 209°
2026-05-08 19:33 4.89818 -33.94182 35920 ft 474 kts 209°
2026-05-08 19:33 4.83992 -33.97282 35924 ft 474 kts 209°
2026-05-08 19:34 4.78164 -34.00383 35923 ft 474 kts 209°
2026-05-08 19:34 4.72329 -34.03486 35917 ft 474 kts 209°
2026-05-08 19:35 4.66539 -34.06566 35927 ft 474 kts 209°
2026-05-08 19:35 4.60703 -34.09669 35922 ft 474 kts 209°
2026-05-08 19:36 4.54873 -34.12768 35925 ft 474 kts 209°
2026-05-08 19:36 4.49042 -34.15868 35926 ft 474 kts 208°
2026-05-08 19:37 4.43219 -34.18984 35922 ft 475 kts 209°
2026-05-08 19:37 4.37395 -34.22107 35926 ft 474 kts 209°
2026-05-08 19:38 4.31575 -34.25225 35923 ft 474 kts 209°
2026-05-08 19:38 4.25754 -34.28342 35930 ft 474 kts 209°
2026-05-08 19:39 4.19932 -34.31458 35926 ft 474 kts 209°
2026-05-08 19:39 4.15100 -34.34045 35924 ft 474 kts 209°
2026-05-08 19:40 4.09284 -34.37158 35920 ft 474 kts 209°
2026-05-08 19:40 4.03468 -34.40270 35923 ft 474 kts 209°
2026-05-08 19:41 3.97652 -34.43382 35923 ft 474 kts 209°
2026-05-08 19:41 3.91837 -34.46492 35923 ft 474 kts 209°
2026-05-08 19:42 3.86026 -34.49600 35923 ft 474 kts 209°
2026-05-08 19:42 3.80253 -34.52687 35925 ft 473 kts 209°
2026-05-08 19:43 3.74495 -34.55766 35923 ft 473 kts 209°
2026-05-08 19:43 3.68689 -34.58870 35920 ft 473 kts 209°
2026-05-08 19:44 3.62881 -34.61974 35922 ft 473 kts 209°
2026-05-08 19:44 3.57070 -34.65079 35926 ft 473 kts 209°
2026-05-08 19:45 3.51263 -34.68182 35920 ft 473 kts 209°
2026-05-08 19:45 3.45453 -34.71286 35924 ft 473 kts 209°
2026-05-08 19:46 3.39642 -34.74390 35926 ft 473 kts 209°
2026-05-08 19:46 3.30969 -34.79022 35921 ft 473 kts 209°
2026-05-08 19:47 3.25161 -34.82124 35925 ft 473 kts 209°
2026-05-08 19:47 3.19360 -34.85221 35926 ft 473 kts 209°
2026-05-08 19:48 3.13563 -34.88316 35924 ft 472 kts 209°
2026-05-08 19:48 3.07770 -34.91408 35923 ft 472 kts 209°
2026-05-08 19:49 3.01976 -34.94500 35920 ft 472 kts 209°
2026-05-08 19:49 2.96183 -34.97592 35922 ft 472 kts 208°
2026-05-08 19:50 2.90392 -35.00682 35921 ft 472 kts 208°
2026-05-08 19:50 2.84643 -35.03749 35927 ft 471 kts 208°
2026-05-08 19:51 2.78817 -35.06857 35926 ft 471 kts 208°
2026-05-08 19:51 2.73076 -35.09919 35924 ft 471 kts 208°
2026-05-08 19:52 2.67293 -35.13001 35917 ft 471 kts 208°
2026-05-08 19:52 2.61503 -35.16073 35917 ft 472 kts 208°
2026-05-08 19:53 2.55702 -35.19151 35917 ft 472 kts 208°
2026-05-08 19:53 2.49895 -35.22233 35918 ft 473 kts 208°
2026-05-08 19:54 2.44078 -35.25321 35918 ft 473 kts 208°
2026-05-08 19:54 2.38257 -35.28410 35920 ft 474 kts 208°
2026-05-08 19:55 2.32434 -35.31499 35929 ft 474 kts 208°
2026-05-08 19:55 2.26609 -35.34590 35928 ft 474 kts 208°
2026-05-08 19:56 2.20925 -35.37606 35933 ft 474 kts 208°
2026-05-08 19:56 2.15105 -35.40693 35933 ft 474 kts 208°
2026-05-08 19:57 2.09286 -35.43780 35931 ft 473 kts 208°
2026-05-08 19:57 2.03468 -35.46866 35929 ft 473 kts 208°
2026-05-08 19:58 1.97653 -35.49949 35930 ft 473 kts 208°
2026-05-08 19:58 1.91831 -35.53037 35930 ft 474 kts 208°
2026-05-08 19:59 1.86010 -35.56123 35930 ft 474 kts 208°
2026-05-08 19:59 1.80187 -35.59210 35930 ft 474 kts 208°
2026-05-08 20:00 1.74402 -35.62277 35930 ft 474 kts 208°
2026-05-08 20:00 1.68571 -35.65368 35929 ft 474 kts 208°
2026-05-08 20:01 1.62785 -35.68436 35931 ft 474 kts 208°
2026-05-08 20:01 1.57005 -35.71500 35928 ft 475 kts 208°
2026-05-08 20:02 1.51166 -35.74595 35932 ft 475 kts 208°
2026-05-08 20:02 1.45376 -35.77663 35929 ft 475 kts 208°
2026-05-08 20:03 1.39559 -35.80747 35927 ft 476 kts 208°
2026-05-08 20:03 1.33710 -35.83847 35927 ft 476 kts 208°
2026-05-08 20:04 1.27851 -35.86951 35928 ft 477 kts 208°
2026-05-08 20:04 1.21989 -35.90057 35924 ft 478 kts 208°
2026-05-08 20:05 1.16118 -35.93167 35925 ft 478 kts 208°
2026-05-08 20:05 1.10230 -35.96287 35926 ft 479 kts 208°
2026-05-08 20:06 1.04337 -35.99409 35925 ft 480 kts 208°
2026-05-08 20:06 0.98423 -36.02542 35926 ft 481 kts 208°
2026-05-08 20:07 0.92501 -36.05679 35929 ft 481 kts 208°
2026-05-08 20:07 0.86576 -36.08817 35930 ft 482 kts 208°
2026-05-08 20:08 0.80654 -36.11955 35925 ft 482 kts 208°
2026-05-08 20:08 0.74729 -36.15094 35929 ft 482 kts 209°
2026-05-08 20:09 0.68801 -36.18234 35929 ft 482 kts 209°
2026-05-08 20:09 0.62873 -36.21375 35932 ft 482 kts 209°
2026-05-08 20:10 0.56942 -36.24516 35933 ft 482 kts 209°
2026-05-08 20:10 0.51056 -36.27633 35933 ft 482 kts 209°
2026-05-08 20:11 0.45095 -36.30792 35934 ft 482 kts 209°
2026-05-08 20:11 0.39218 -36.33910 35936 ft 481 kts 209°
2026-05-08 20:12 0.33264 -36.37065 35933 ft 481 kts 209°
2026-05-08 20:12 0.27348 -36.40198 35931 ft 481 kts 208°
2026-05-08 20:13 0.21437 -36.43328 35933 ft 481 kts 208°
2026-05-08 20:13 0.15568 -36.46436 35934 ft 481 kts 208°
2026-05-08 20:14 0.09662 -36.49562 35934 ft 480 kts 208°
2026-05-08 20:14 0.03751 -36.52692 35934 ft 480 kts 208°
2026-05-08 20:15 -0.02136 -36.55809 35928 ft 480 kts 208°
2026-05-08 20:15 -0.08034 -36.58932 35927 ft 480 kts 208°
2026-05-08 20:16 -0.13947 -36.62063 35928 ft 481 kts 208°
2026-05-08 20:16 -0.19860 -36.65194 35931 ft 481 kts 208°
2026-05-08 20:17 -0.25766 -36.68321 35930 ft 481 kts 208°
2026-05-08 20:17 -0.31672 -36.71449 35933 ft 481 kts 208°
2026-05-08 20:18 -0.37476 -36.74521 35936 ft 481 kts 208°
2026-05-08 20:18 -0.43171 -36.77537 35935 ft 481 kts 208°
2026-05-08 20:19 -0.49043 -36.80647 35934 ft 481 kts 208°
2026-05-08 20:19 -0.54961 -36.83782 35932 ft 481 kts 208°
2026-05-08 20:20 -0.60870 -36.86912 35930 ft 481 kts 208°
2026-05-08 20:20 -0.66786 -36.90046 35928 ft 481 kts 208°
2026-05-08 20:21 -0.72700 -36.93178 35935 ft 481 kts 208°
2026-05-08 20:21 -0.78619 -36.96313 35934 ft 481 kts 208°
2026-05-08 20:22 -0.84537 -36.99448 35930 ft 482 kts 208°
2026-05-08 20:22 -0.89456 -37.02055 35932 ft 482 kts 208°
2026-05-08 20:23 -0.96445 -37.05603 35930 ft 482 kts 203°
2026-05-08 20:23 -1.02580 -37.08228 35935 ft 483 kts 204°
2026-05-08 20:24 -1.08751 -37.10895 35935 ft 483 kts 204°
2026-05-08 20:24 -1.14966 -37.13583 35932 ft 484 kts 204°
2026-05-08 20:25 -1.21107 -37.16238 35935 ft 484 kts 204°
2026-05-08 20:25 -1.27300 -37.18914 35939 ft 485 kts 204°
2026-05-08 20:26 -1.33495 -37.21593 35934 ft 486 kts 204°
2026-05-08 20:26 -1.39684 -37.24269 35941 ft 486 kts 204°
2026-05-08 20:27 -1.45866 -37.26941 35946 ft 486 kts 204°
2026-05-08 20:27 -1.52078 -37.29627 35948 ft 485 kts 204°
2026-05-08 20:28 -1.58276 -37.32307 35950 ft 485 kts 204°
2026-05-08 20:28 -1.63420 -37.34531 35945 ft 484 kts 204°
2026-05-08 20:29 -1.69605 -37.37206 35946 ft 484 kts 204°
2026-05-08 20:29 -1.75778 -37.39876 35942 ft 483 kts 204°
2026-05-08 20:30 -1.81950 -37.42547 35942 ft 483 kts 204°
2026-05-08 20:30 -1.88101 -37.45208 35934 ft 483 kts 204°
2026-05-08 20:31 -1.94278 -37.47882 35933 ft 483 kts 204°
2026-05-08 20:31 -2.00424 -37.50541 35937 ft 483 kts 204°
2026-05-08 20:32 -2.06591 -37.53210 35933 ft 483 kts 204°
2026-05-08 20:32 -2.12759 -37.55879 35930 ft 483 kts 204°
2026-05-08 20:33 -2.18943 -37.58554 35927 ft 484 kts 204°
2026-05-08 20:33 -2.25127 -37.61230 35925 ft 485 kts 204°
2026-05-08 20:34 -2.31326 -37.63913 35932 ft 486 kts 204°
2026-05-08 20:35 -2.40595 -37.67926 35934 ft 486 kts 204°
2026-05-08 20:35 -2.46805 -37.70613 35943 ft 486 kts 204°
2026-05-08 20:36 -2.53018 -37.73302 35939 ft 486 kts 204°
2026-05-08 20:36 -2.59226 -37.75990 35942 ft 486 kts 204°
2026-05-08 20:37 -2.65431 -37.78676 35942 ft 486 kts 204°
2026-05-08 20:37 -2.71644 -37.81360 35937 ft 486 kts 204°
2026-05-08 20:38 -2.77845 -37.84042 35934 ft 486 kts 204°
2026-05-08 20:38 -2.83909 -37.86668 35936 ft 486 kts 204°
2026-05-08 20:39 -2.90111 -37.89355 35937 ft 485 kts 204°
2026-05-08 20:39 -2.96319 -37.92045 36103 ft 486 kts 204°
2026-05-08 20:39 -2.99420 -37.93388 36282 ft 485 kts 205°
2026-05-08 20:40 -3.02511 -37.94728 36471 ft 484 kts 205°
2026-05-08 20:40 -3.05599 -37.96066 36660 ft 483 kts 205°
2026-05-08 20:40 -3.08674 -37.97399 36852 ft 481 kts 205°
2026-05-08 20:40 -3.11743 -37.98730 37020 ft 480 kts 205°
2026-05-08 20:41 -3.14782 -38.00105 37202 ft 479 kts 206°
2026-05-08 20:41 -3.17804 -38.01519 37374 ft 478 kts 206°
2026-05-08 20:41 -3.20810 -38.02933 37541 ft 477 kts 206°
2026-05-08 20:41 -3.23813 -38.04340 37705 ft 476 kts 206°
2026-05-08 20:42 -3.26810 -38.05737 37904 ft 475 kts 206°
2026-05-08 20:42 -3.32797 -38.08516 37926 ft 473 kts 206°
2026-05-08 20:43 -3.38441 -38.11134 37932 ft 473 kts 206°
2026-05-08 20:43 -3.44507 -38.13948 37932 ft 473 kts 206°
2026-05-08 20:44 -3.50437 -38.16698 37926 ft 473 kts 206°
2026-05-08 20:44 -3.56420 -38.19450 37931 ft 473 kts 205°
2026-05-08 20:45 -3.62272 -38.22023 37915 ft 473 kts 205°
2026-05-08 20:45 -3.68294 -38.24673 37923 ft 473 kts 205°
2026-05-08 20:46 -3.73974 -38.27187 37922 ft 473 kts 205°
2026-05-08 20:46 -3.79808 -38.29771 37923 ft 473 kts 205°
2026-05-08 20:47 -3.85808 -38.32428 37920 ft 473 kts 205°
2026-05-08 20:47 -3.91822 -38.35093 37921 ft 473 kts 205°
2026-05-08 20:48 -3.97833 -38.37755 37917 ft 473 kts 205°
2026-05-08 20:48 -4.03843 -38.40433 37925 ft 472 kts 206°
2026-05-08 20:49 -4.09848 -38.43112 37921 ft 472 kts 205°
2026-05-08 20:49 -4.15854 -38.45780 37931 ft 472 kts 205°
2026-05-08 20:50 -4.21860 -38.48449 37939 ft 472 kts 206°
2026-05-08 20:50 -4.27585 -38.50993 37940 ft 472 kts 206°
2026-05-08 20:51 -4.33433 -38.53928 37929 ft 470 kts 211°
2026-05-08 20:51 -4.39170 -38.57069 37933 ft 470 kts 210°
2026-05-08 20:52 -4.44914 -38.60197 37931 ft 470 kts 210°
2026-05-08 20:52 -4.50666 -38.63305 37934 ft 470 kts 208°
2026-05-08 20:53 -4.56576 -38.66114 37927 ft 470 kts 207°
2026-05-08 20:53 -4.62466 -38.68873 37925 ft 470 kts 207°
2026-05-08 20:54 -4.68373 -38.71690 37935 ft 470 kts 207°
2026-05-08 20:54 -4.74271 -38.74519 37928 ft 470 kts 207°
2026-05-08 20:55 -4.80170 -38.77348 37929 ft 470 kts 207°
2026-05-08 20:55 -4.86068 -38.80179 37926 ft 470 kts 207°
2026-05-08 20:56 -4.91964 -38.83012 37926 ft 470 kts 207°
2026-05-08 20:56 -4.97856 -38.85848 37934 ft 470 kts 207°
2026-05-08 20:57 -5.03746 -38.88684 37926 ft 470 kts 207°
2026-05-08 20:57 -5.09636 -38.91520 37929 ft 470 kts 207°
2026-05-08 20:58 -5.15528 -38.94357 37930 ft 470 kts 207°
2026-05-08 20:58 -5.21422 -38.97196 37927 ft 470 kts 207°
2026-05-08 20:59 -5.27310 -39.00033 37923 ft 470 kts 207°
2026-05-08 20:59 -5.33204 -39.02872 37925 ft 470 kts 207°
2026-05-08 21:00 -5.39089 -39.05710 37933 ft 469 kts 207°
2026-05-08 21:00 -5.44978 -39.08557 37928 ft 469 kts 207°
2026-05-08 21:01 -5.50863 -39.11393 37932 ft 469 kts 207°
2026-05-08 21:01 -5.56705 -39.14207 37911 ft 469 kts 207°
2026-05-08 21:02 -5.62586 -39.17041 37920 ft 469 kts 207°
2026-05-08 21:02 -5.68409 -39.19845 37928 ft 469 kts 207°
2026-05-08 21:03 -5.74250 -39.22660 37935 ft 469 kts 207°
2026-05-08 21:03 -5.80133 -39.25495 37940 ft 469 kts 207°
2026-05-08 21:04 -5.86013 -39.28330 37935 ft 469 kts 207°
2026-05-08 21:04 -5.91899 -39.31168 37919 ft 469 kts 207°
2026-05-08 21:05 -5.97779 -39.34004 37912 ft 469 kts 207°
2026-05-08 21:05 -6.03664 -39.36844 37914 ft 469 kts 207°
2026-05-08 21:06 -6.09548 -39.39684 37919 ft 469 kts 207°
2026-05-08 21:06 -6.15434 -39.42526 37942 ft 469 kts 207°
2026-05-08 21:07 -6.21324 -39.45370 37939 ft 469 kts 207°
2026-05-08 21:07 -6.27211 -39.48213 37925 ft 470 kts 207°
2026-05-08 21:08 -6.33097 -39.51057 37917 ft 470 kts 207°
2026-05-08 21:08 -6.38989 -39.53904 37919 ft 470 kts 207°
2026-05-08 21:09 -6.44889 -39.56756 37926 ft 470 kts 207°
2026-05-08 21:09 -6.50778 -39.59603 37942 ft 470 kts 207°
2026-05-08 21:10 -6.56670 -39.62452 37943 ft 469 kts 207°
2026-05-08 21:10 -6.62556 -39.65299 37951 ft 469 kts 207°
2026-05-08 21:11 -6.68451 -39.68151 37945 ft 469 kts 207°
2026-05-08 21:11 -6.74336 -39.70999 37924 ft 469 kts 207°
2026-05-08 21:12 -6.80212 -39.73844 37928 ft 469 kts 207°
2026-05-08 21:12 -6.86059 -39.76676 37936 ft 469 kts 207°
2026-05-08 21:13 -6.91938 -39.79525 37948 ft 469 kts 207°
2026-05-08 21:13 -6.97815 -39.82375 37948 ft 469 kts 207°
2026-05-08 21:14 -7.03698 -39.85229 37953 ft 469 kts 207°
2026-05-08 21:14 -7.09576 -39.88080 37955 ft 469 kts 207°
2026-05-08 21:15 -7.14456 -39.90448 37958 ft 468 kts 207°
2026-05-08 21:15 -7.20324 -39.93297 37963 ft 468 kts 207°
2026-05-08 21:16 -7.26196 -39.96148 37965 ft 468 kts 207°
2026-05-08 21:16 -7.32060 -39.98996 37963 ft 468 kts 207°
2026-05-08 21:17 -7.37922 -40.01844 37963 ft 468 kts 207°
2026-05-08 21:17 -7.43781 -40.04691 37967 ft 468 kts 207°
2026-05-08 21:18 -7.49643 -40.07541 37964 ft 468 kts 207°
2026-05-08 21:18 -7.55503 -40.10390 37966 ft 468 kts 207°
2026-05-08 21:19 -7.61367 -40.13243 37964 ft 467 kts 207°
2026-05-08 21:19 -7.67220 -40.16090 37961 ft 467 kts 207°
2026-05-08 21:20 -7.73074 -40.18938 37956 ft 467 kts 207°
2026-05-08 21:20 -7.78927 -40.21786 37958 ft 467 kts 207°
2026-05-08 21:21 -7.84783 -40.24638 37955 ft 467 kts 207°
2026-05-08 21:21 -7.90630 -40.27486 37952 ft 467 kts 207°
2026-05-08 21:22 -7.96481 -40.30336 37954 ft 467 kts 207°
2026-05-08 21:22 -8.02291 -40.33161 37951 ft 466 kts 207°
2026-05-08 21:23 -8.08131 -40.36003 37951 ft 466 kts 207°
2026-05-08 21:23 -8.13971 -40.38849 37953 ft 466 kts 207°
2026-05-08 21:24 -8.19804 -40.41695 37949 ft 466 kts 207°
2026-05-08 21:24 -8.25636 -40.44541 37954 ft 465 kts 207°
2026-05-08 21:25 -8.31461 -40.47385 37950 ft 465 kts 207°
2026-05-08 21:25 -8.37284 -40.50229 37953 ft 465 kts 207°
2026-05-08 21:26 -8.43104 -40.53072 37948 ft 465 kts 207°
2026-05-08 21:26 -8.48882 -40.55897 37949 ft 464 kts 207°
2026-05-08 21:27 -8.54700 -40.58743 37953 ft 464 kts 207°
2026-05-08 21:27 -8.60509 -40.61585 37956 ft 464 kts 207°
2026-05-08 21:28 -8.66318 -40.64427 37952 ft 463 kts 207°
2026-05-08 21:28 -8.72125 -40.67269 37951 ft 463 kts 207°
2026-05-08 21:29 -8.77923 -40.70109 37952 ft 463 kts 207°
2026-05-08 21:29 -8.83722 -40.72949 37954 ft 463 kts 207°
2026-05-08 21:30 -8.89514 -40.75787 37952 ft 463 kts 207°
2026-05-08 21:30 -8.95306 -40.78625 37957 ft 463 kts 207°
2026-05-08 21:31 -9.01095 -40.81463 37952 ft 462 kts 207°
2026-05-08 21:31 -9.06887 -40.84304 37955 ft 462 kts 207°
2026-05-08 21:32 -9.12678 -40.87145 37961 ft 462 kts 207°
2026-05-08 21:32 -9.18460 -40.89983 37959 ft 462 kts 207°
2026-05-08 21:33 -9.24252 -40.92826 37952 ft 462 kts 207°
2026-05-08 21:33 -9.30029 -40.95663 37952 ft 462 kts 207°
2026-05-08 21:34 -9.35819 -40.98507 37957 ft 462 kts 207°
2026-05-08 21:34 -9.41602 -41.01349 37957 ft 462 kts 207°
2026-05-08 21:35 -9.47347 -41.04173 37960 ft 462 kts 207°
2026-05-08 21:35 -9.53131 -41.07018 37958 ft 462 kts 207°
2026-05-08 21:36 -9.58919 -41.09865 37966 ft 462 kts 207°
2026-05-08 21:36 -9.64705 -41.12713 37963 ft 463 kts 207°
2026-05-08 21:37 -9.70499 -41.15568 37968 ft 463 kts 207°
2026-05-08 21:37 -9.76291 -41.18424 37972 ft 463 kts 207°
2026-05-08 21:38 -9.82080 -41.21279 37975 ft 463 kts 207°
2026-05-08 21:38 -9.87874 -41.24137 37980 ft 463 kts 207°
2026-05-08 21:39 -9.93618 -41.26972 37986 ft 464 kts 207°
2026-05-08 21:39 -9.99416 -41.29834 37992 ft 464 kts 207°
2026-05-08 21:40 -10.05218 -41.32699 37995 ft 464 kts 207°
2026-05-08 21:40 -10.11019 -41.35564 38003 ft 464 kts 207°
2026-05-08 21:41 -10.19683 -41.39844 38010 ft 463 kts 207°
2026-05-08 21:41 -10.25478 -41.42707 38008 ft 463 kts 207°
2026-05-08 21:42 -10.31272 -41.45570 38003 ft 463 kts 207°
2026-05-08 21:42 -10.37065 -41.48435 38004 ft 463 kts 207°
2026-05-08 21:43 -10.42870 -41.51306 38001 ft 463 kts 207°
2026-05-08 21:43 -10.48660 -41.54172 38005 ft 463 kts 207°
2026-05-08 21:44 -10.54452 -41.57039 37998 ft 463 kts 207°
2026-05-08 21:44 -10.60245 -41.59908 37997 ft 463 kts 207°
2026-05-08 21:45 -10.66030 -41.62775 38001 ft 462 kts 207°
2026-05-08 21:45 -10.71811 -41.65642 37991 ft 462 kts 207°
2026-05-08 21:46 -10.77591 -41.68509 37992 ft 462 kts 207°
2026-05-08 21:46 -10.83368 -41.71375 37989 ft 462 kts 207°
2026-05-08 21:47 -10.89143 -41.74243 37991 ft 462 kts 207°
2026-05-08 21:47 -10.94913 -41.77111 37992 ft 461 kts 207°
2026-05-08 21:48 -11.00680 -41.79977 37993 ft 461 kts 207°
2026-05-08 21:48 -11.06446 -41.82845 37990 ft 461 kts 207°
2026-05-08 21:49 -11.12212 -41.85714 37999 ft 461 kts 207°
2026-05-08 21:49 -11.17980 -41.88585 37999 ft 461 kts 207°
2026-05-08 21:50 -11.23743 -41.91455 38002 ft 461 kts 207°
2026-05-08 21:50 -11.29463 -41.94305 38004 ft 461 kts 207°
2026-05-08 21:51 -11.35219 -41.97173 38008 ft 460 kts 207°
2026-05-08 21:51 -11.40970 -42.00041 38016 ft 460 kts 207°
2026-05-08 21:52 -11.46722 -42.02911 38018 ft 460 kts 207°
2026-05-08 21:52 -11.52463 -42.05776 38019 ft 459 kts 207°
2026-05-08 21:53 -11.58201 -42.08641 38026 ft 459 kts 207°
2026-05-08 21:53 -11.63933 -42.11504 38031 ft 458 kts 207°
2026-05-08 21:54 -11.69654 -42.14364 38033 ft 458 kts 207°
2026-05-08 21:54 -11.75374 -42.17223 38036 ft 457 kts 207°
2026-05-08 21:55 -11.81083 -42.20077 38042 ft 457 kts 208°
2026-05-08 21:56 -11.89633 -42.24352 38039 ft 456 kts 208°
2026-05-08 21:56 -11.95326 -42.27202 38036 ft 455 kts 208°
2026-05-08 21:57 -12.01010 -42.30048 38036 ft 455 kts 208°
2026-05-08 21:57 -12.06684 -42.32890 38030 ft 454 kts 208°
2026-05-08 21:58 -12.12353 -42.35731 38028 ft 453 kts 208°
2026-05-08 21:58 -12.18016 -42.38571 38015 ft 453 kts 208°
2026-05-08 21:59 -12.23677 -42.41411 38017 ft 453 kts 208°
2026-05-08 21:59 -12.28381 -42.43771 38009 ft 453 kts 208°
2026-05-08 22:00 -12.34988 -42.47091 38001 ft 453 kts 208°
2026-05-08 22:00 -12.39683 -42.49450 37993 ft 452 kts 208°
2026-05-08 22:01 -12.45329 -42.52289 37984 ft 452 kts 208°
2026-05-08 22:01 -12.50970 -42.55127 37981 ft 451 kts 208°
2026-05-08 22:02 -12.56605 -42.57965 37984 ft 451 kts 208°
2026-05-08 22:02 -12.62234 -42.60798 37985 ft 451 kts 208°
2026-05-08 22:03 -12.67870 -42.63638 37978 ft 451 kts 208°
2026-05-08 22:03 -12.73496 -42.66474 37986 ft 451 kts 208°
2026-05-08 22:04 -12.79130 -42.69315 37981 ft 451 kts 208°
2026-05-08 22:04 -12.84764 -42.72157 37986 ft 451 kts 208°
2026-05-08 22:05 -12.90390 -42.75000 37989 ft 451 kts 208°
2026-05-08 22:05 -12.95993 -42.77829 37992 ft 451 kts 208°
2026-05-08 22:06 -13.01615 -42.80669 37990 ft 450 kts 208°
2026-05-08 22:06 -13.07235 -42.83510 37993 ft 450 kts 208°
2026-05-08 22:07 -13.12847 -42.86348 37994 ft 449 kts 208°
2026-05-08 22:07 -13.18450 -42.89185 37992 ft 449 kts 208°
2026-05-08 22:08 -13.24054 -42.92023 37996 ft 449 kts 208°
2026-05-08 22:08 -13.29654 -42.94860 37992 ft 449 kts 208°
2026-05-08 22:09 -13.35253 -42.97699 37992 ft 449 kts 208°
2026-05-08 22:09 -13.40853 -43.00538 37992 ft 449 kts 208°
2026-05-08 22:10 -13.46448 -43.03378 37994 ft 448 kts 208°
2026-05-08 22:10 -13.52033 -43.06213 37990 ft 448 kts 208°
2026-05-08 22:11 -13.57619 -43.09051 37984 ft 448 kts 208°
2026-05-08 22:11 -13.63199 -43.11887 37984 ft 447 kts 208°
2026-05-08 22:12 -13.68778 -43.14723 37983 ft 447 kts 208°
2026-05-08 22:12 -13.74346 -43.17561 37982 ft 446 kts 208°
2026-05-08 22:13 -13.79909 -43.20396 37981 ft 446 kts 208°
2026-05-08 22:13 -13.85469 -43.23229 37981 ft 446 kts 208°
2026-05-08 22:14 -13.91028 -43.26061 37984 ft 445 kts 208°
2026-05-08 22:14 -13.96541 -43.28870 37978 ft 445 kts 208°
2026-05-08 22:15 -14.02094 -43.31695 37981 ft 445 kts 208°
2026-05-08 22:15 -14.07580 -43.34451 37981 ft 445 kts 207°
2026-05-08 22:16 -14.13140 -43.37245 37985 ft 444 kts 207°
2026-05-08 22:16 -14.18697 -43.40044 37983 ft 444 kts 207°
2026-05-08 22:17 -14.24248 -43.42843 37983 ft 444 kts 207°
2026-05-08 22:17 -14.29797 -43.45642 37986 ft 444 kts 207°
2026-05-08 22:18 -14.35342 -43.48441 37988 ft 444 kts 207°
2026-05-08 22:18 -14.40885 -43.51240 37990 ft 443 kts 207°
2026-05-08 22:19 -14.46423 -43.54038 37993 ft 443 kts 207°
2026-05-08 22:19 -14.51933 -43.56824 37991 ft 443 kts 207°
2026-05-08 22:20 -14.57469 -43.59625 37988 ft 443 kts 207°
2026-05-08 22:20 -14.62996 -43.62422 37989 ft 442 kts 207°
2026-05-08 22:21 -14.68520 -43.65217 37983 ft 442 kts 207°
2026-05-08 22:21 -14.74038 -43.68009 37984 ft 442 kts 207°
2026-05-08 22:22 -14.79517 -43.70786 37987 ft 441 kts 207°
2026-05-08 22:22 -14.85026 -43.73581 37989 ft 441 kts 207°
2026-05-08 22:23 -14.90524 -43.76376 37991 ft 440 kts 207°
2026-05-08 22:23 -14.96021 -43.79177 37988 ft 440 kts 207°
2026-05-08 22:24 -15.01515 -43.81970 37994 ft 440 kts 207°
2026-05-08 22:24 -15.07017 -43.84732 37991 ft 440 kts 207°
2026-05-08 22:25 -15.12520 -43.87485 38001 ft 439 kts 207°
2026-05-08 22:25 -15.18017 -43.90244 37994 ft 439 kts 207°
2026-05-08 22:26 -15.23508 -43.93005 38003 ft 438 kts 207°
2026-05-08 22:26 -15.28994 -43.95765 38001 ft 438 kts 207°
2026-05-08 22:27 -15.34476 -43.98525 38001 ft 438 kts 207°
2026-05-08 22:27 -15.39962 -44.01288 38008 ft 438 kts 207°
2026-05-08 22:28 -15.45405 -44.04032 38005 ft 438 kts 207°
2026-05-08 22:28 -15.50887 -44.06781 38011 ft 438 kts 207°
2026-05-08 22:29 -15.56379 -44.09493 38015 ft 437 kts 206°
2026-05-08 22:29 -15.61872 -44.12210 38017 ft 437 kts 207°
2026-05-08 22:30 -15.67359 -44.14929 38021 ft 437 kts 207°
2026-05-08 22:30 -15.72842 -44.17648 38021 ft 437 kts 207°
2026-05-08 22:31 -15.78324 -44.20369 38023 ft 436 kts 207°
2026-05-08 22:31 -15.83797 -44.23085 38029 ft 436 kts 207°
2026-05-08 22:32 -15.89271 -44.25803 38033 ft 436 kts 207°
2026-05-08 22:32 -15.94738 -44.28521 38033 ft 436 kts 207°
2026-05-08 22:33 -16.00219 -44.31240 38035 ft 439 kts 208°
2026-05-08 22:33 -16.05758 -44.34002 38034 ft 442 kts 208°
2026-05-08 22:34 -16.11297 -44.36765 38032 ft 441 kts 208°
2026-05-08 22:34 -16.16794 -44.39506 38039 ft 441 kts 208°
2026-05-08 22:35 -16.22324 -44.42264 38038 ft 441 kts 208°
2026-05-08 22:35 -16.27855 -44.45025 38041 ft 441 kts 208°
2026-05-08 22:36 -16.33381 -44.47784 38036 ft 441 kts 208°
2026-05-08 22:36 -16.38909 -44.50546 38038 ft 441 kts 208°
2026-05-08 22:37 -16.44437 -44.53310 38038 ft 440 kts 208°
2026-05-08 22:37 -16.49963 -44.56074 38047 ft 440 kts 208°
2026-05-08 22:38 -16.55486 -44.58839 38042 ft 440 kts 208°
2026-05-08 22:38 -16.61003 -44.61602 38028 ft 440 kts 208°
2026-05-08 22:39 -16.66524 -44.64369 38018 ft 440 kts 208°
2026-05-08 22:39 -16.72039 -44.67136 38026 ft 440 kts 208°
2026-05-08 22:40 -16.77560 -44.69906 38033 ft 440 kts 208°
2026-05-08 22:40 -16.83073 -44.72674 38040 ft 440 kts 208°
2026-05-08 22:41 -16.88517 -44.75435 38032 ft 439 kts 209°
2026-05-08 22:41 -16.93982 -44.78290 38026 ft 439 kts 209°
2026-05-08 22:42 -16.99448 -44.81144 38029 ft 439 kts 209°
2026-05-08 22:42 -17.04921 -44.83993 38030 ft 439 kts 209°
2026-05-08 22:43 -17.10355 -44.86822 38027 ft 439 kts 209°
2026-05-08 22:43 -17.15824 -44.89670 38027 ft 439 kts 209°
2026-05-08 22:44 -17.21290 -44.92521 38028 ft 439 kts 209°
2026-05-08 22:44 -17.26796 -44.95392 38030 ft 439 kts 209°
2026-05-08 22:45 -17.32229 -44.98228 38032 ft 439 kts 209°
2026-05-08 22:45 -17.37670 -45.01078 38027 ft 432 kts 207°
2026-05-08 22:46 -17.42959 -45.03874 38040 ft 425 kts 208°
2026-05-08 22:46 -17.48208 -45.06787 38042 ft 427 kts 209°
2026-05-08 22:47 -17.53450 -45.09696 38048 ft 426 kts 208°
2026-05-08 22:47 -17.57823 -45.12112 38042 ft 426 kts 208°
2026-05-08 22:48 -17.63060 -45.15003 38047 ft 426 kts 208°
2026-05-08 22:48 -17.68344 -45.17910 38049 ft 426 kts 208°
2026-05-08 22:49 -17.73630 -45.20641 38047 ft 426 kts 207°
2026-05-08 22:49 -17.81605 -45.24742 38051 ft 425 kts 207°
2026-05-08 22:50 -17.86908 -45.27493 38046 ft 425 kts 207°
2026-05-08 22:50 -17.92211 -45.30248 38050 ft 425 kts 207°
2026-05-08 22:51 -17.97514 -45.33004 38045 ft 425 kts 207°
2026-05-08 22:51 -18.01056 -45.34847 38045 ft 425 kts 207°
2026-05-08 22:53 -18.05104 -45.36953 38040 ft 425 kts 207°
2026-05-08 22:54 -18.05192 -45.36999 38042 ft 425 kts 207°
2026-05-08 22:54 -18.05779 -45.37306 38045 ft 425 kts 207°
2026-05-08 22:55 -18.10864 -45.39954 38049 ft 424 kts 207°
2026-05-08 22:55 -18.16156 -45.42707 38043 ft 423 kts 207°
2026-05-08 22:56 -18.21431 -45.45455 38039 ft 423 kts 207°
2026-05-08 22:56 -18.26710 -45.48208 38039 ft 423 kts 207°
2026-05-08 22:57 -18.31985 -45.50961 38041 ft 423 kts 207°
2026-05-08 22:57 -18.37266 -45.53718 38041 ft 423 kts 207°
2026-05-08 22:58 -18.42505 -45.56455 38044 ft 423 kts 207°
2026-05-08 22:58 -18.47809 -45.59307 38042 ft 434 kts 211°
2026-05-08 22:59 -18.53172 -45.62377 38047 ft 443 kts 211°
2026-05-08 22:59 -18.58608 -45.65464 38046 ft 443 kts 211°
2026-05-08 23:00 -18.63127 -45.68016 38048 ft 443 kts 211°
2026-05-08 23:00 -18.68569 -45.71089 38053 ft 444 kts 211°
2026-05-08 23:01 -18.74005 -45.74162 38052 ft 444 kts 211°
2026-05-08 23:01 -18.79445 -45.77240 38055 ft 444 kts 211°
2026-05-08 23:02 -18.84889 -45.80323 38060 ft 444 kts 211°
2026-05-08 23:02 -18.90329 -45.83410 38064 ft 444 kts 211°
2026-05-08 23:03 -18.95780 -45.86508 38063 ft 444 kts 211°
2026-05-08 23:03 -19.01223 -45.89603 38068 ft 445 kts 211°
2026-05-08 23:04 -19.06676 -45.92705 38070 ft 445 kts 211°
2026-05-08 23:04 -19.12124 -45.95807 38074 ft 445 kts 211°
2026-05-08 23:05 -19.17574 -45.98913 38074 ft 445 kts 211°
2026-05-08 23:05 -19.23000 -46.02004 38076 ft 445 kts 212°
2026-05-08 23:06 -19.28415 -46.05090 38079 ft 445 kts 212°
2026-05-08 23:06 -19.33863 -46.08198 38083 ft 445 kts 212°
2026-05-08 23:07 -19.39304 -46.11304 38080 ft 445 kts 212°
2026-05-08 23:07 -19.44749 -46.14415 38079 ft 444 kts 212°
2026-05-08 23:08 -19.50194 -46.17528 38078 ft 445 kts 212°
2026-05-08 23:08 -19.55637 -46.20642 38076 ft 445 kts 212°
2026-05-08 23:09 -19.61080 -46.23759 38084 ft 444 kts 212°
2026-05-08 23:09 -19.66442 -46.26833 38080 ft 445 kts 212°
2026-05-08 23:10 -19.71692 -46.29845 38079 ft 444 kts 212°
2026-05-08 23:10 -19.77131 -46.32967 38078 ft 444 kts 212°
2026-05-08 23:11 -19.82565 -46.36090 38081 ft 444 kts 212°
2026-05-08 23:11 -19.87992 -46.39211 38078 ft 444 kts 212°
2026-05-08 23:12 -19.93419 -46.42333 38068 ft 443 kts 212°
2026-05-08 23:12 -19.98834 -46.45453 38069 ft 442 kts 213°
2026-05-08 23:13 -20.04244 -46.48571 38092 ft 442 kts 213°
2026-05-08 23:13 -20.09646 -46.51688 38090 ft 441 kts 213°
2026-05-08 23:14 -20.15040 -46.54802 38064 ft 441 kts 213°
2026-05-08 23:14 -20.20434 -46.57919 38067 ft 441 kts 213°
2026-05-08 23:15 -20.25824 -46.61036 38066 ft 441 kts 213°
2026-05-08 23:15 -20.31215 -46.64156 38060 ft 441 kts 213°
2026-05-08 23:16 -20.36552 -46.67248 38049 ft 441 kts 213°
2026-05-08 23:16 -20.41940 -46.70370 38051 ft 441 kts 213°
2026-05-08 23:17 -20.45128 -46.72219 38048 ft 441 kts 213°
2026-05-08 23:17 -20.50453 -46.75310 38045 ft 440 kts 213°
2026-05-08 23:18 -20.55833 -46.78434 38037 ft 440 kts 214°
2026-05-08 23:18 -20.61208 -46.81559 38037 ft 440 kts 214°
2026-05-08 23:19 -20.66574 -46.84680 38036 ft 440 kts 214°
2026-05-08 23:19 -20.71945 -46.87809 38037 ft 439 kts 214°
2026-05-08 23:20 -20.77681 -46.90218 38134 ft 453 kts 199°
2026-05-08 23:20 -20.80819 -46.90704 38297 ft 461 kts 190°
2026-05-08 23:20 -20.84048 -46.90668 38470 ft 469 kts 181°
2026-05-08 23:21 -20.87295 -46.90172 38661 ft 472 kts 178°
2026-05-08 23:21 -20.90393 -46.89664 38803 ft 471 kts 178°
2026-05-08 23:21 -20.93352 -46.89196 38911 ft 471 kts 179°
2026-05-08 23:21 -20.96408 -46.88719 39015 ft 471 kts 179°
2026-05-08 23:22 -21.02922 -46.87706 39039 ft 471 kts 179°
2026-05-08 23:22 -21.09313 -46.86710 39039 ft 471 kts 179°
2026-05-08 23:23 -21.15361 -46.85762 39033 ft 471 kts 179°
2026-05-08 23:23 -21.21572 -46.84792 39036 ft 472 kts 179°
2026-05-08 23:24 -21.27983 -46.83792 39034 ft 472 kts 179°
2026-05-08 23:24 -21.34487 -46.82772 38816 ft 472 kts 179°
2026-05-08 23:25 -21.37728 -46.82262 38571 ft 471 kts 179°
2026-05-08 23:25 -21.40974 -46.81752 38299 ft 471 kts 179°
2026-05-08 23:25 -21.44223 -46.81242 38027 ft 473 kts 179°
2026-05-08 23:25 -21.47417 -46.80741 37771 ft 474 kts 179°
2026-05-08 23:26 -21.50615 -46.80241 37505 ft 475 kts 179°
2026-05-08 23:26 -21.53911 -46.79722 37255 ft 476 kts 178°
2026-05-08 23:26 -21.57195 -46.79204 37009 ft 478 kts 178°
2026-05-08 23:26 -21.60487 -46.78684 36552 ft 480 kts 178°
2026-05-08 23:27 -21.62758 -46.78327 36026 ft 482 kts 178°
2026-05-08 23:27 -21.65913 -46.77831 35049 ft 486 kts 178°
2026-05-08 23:27 -21.68581 -46.77411 33831 ft 491 kts 177°
2026-05-08 23:27 -21.71992 -46.76878 32017 ft 501 kts 176°
2026-05-08 23:28 -21.75248 -46.76367 30752 ft 506 kts 176°
2026-05-08 23:28 -21.78742 -46.75815 29636 ft 509 kts 175°
2026-05-08 23:28 -21.82231 -46.75260 28753 ft 506 kts 175°
2026-05-08 23:28 -21.85698 -46.74707 28143 ft 499 kts 175°
2026-05-08 23:29 -21.89083 -46.74167 27823 ft 487 kts 175°
2026-05-08 23:29 -21.92393 -46.73639 27485 ft 475 kts 175°
2026-05-08 23:29 -21.95659 -46.73122 26693 ft 475 kts 175°
2026-05-08 23:29 -21.98916 -46.72609 26026 ft 472 kts 175°
2026-05-08 23:30 -22.02171 -46.72097 25330 ft 471 kts 175°
2026-05-08 23:30 -22.05417 -46.71584 24588 ft 470 kts 175°
2026-05-08 23:30 -22.08651 -46.71070 23847 ft 470 kts 175°
2026-05-08 23:30 -22.11875 -46.70559 23028 ft 469 kts 174°
2026-05-08 23:31 -22.15090 -46.70048 22382 ft 463 kts 174°
2026-05-08 23:31 -22.18220 -46.69550 21676 ft 459 kts 174°
2026-05-08 23:31 -22.21364 -46.69051 20907 ft 456 kts 174°
2026-05-08 23:31 -22.24494 -46.68555 20237 ft 452 kts 174°
2026-05-08 23:32 -22.27596 -46.68062 19514 ft 449 kts 174°
2026-05-08 23:32 -22.30676 -46.67574 18784 ft 446 kts 173°
2026-05-08 23:32 -22.33738 -46.67087 18011 ft 443 kts 173°
2026-05-08 23:32 -22.36763 -46.66611 17328 ft 435 kts 174°
2026-05-08 23:33 -22.39753 -46.66589 16613 ft 426 kts 189°
2026-05-08 23:33 -22.42585 -46.67343 15946 ft 415 kts 204°
2026-05-08 23:33 -22.45068 -46.68816 15312 ft 402 kts 220°
2026-05-08 23:33 -22.47020 -46.70889 14712 ft 388 kts 236°
2026-05-08 23:34 -22.48387 -46.73364 14072 ft 379 kts 246°
2026-05-08 23:34 -22.49580 -46.75884 13415 ft 374 kts 245°
2026-05-08 23:34 -22.50703 -46.78009 12887 ft 369 kts 242°
2026-05-08 23:34 -22.52145 -46.80389 12257 ft 363 kts 238°
2026-05-08 23:35 -22.53612 -46.82589 11645 ft 358 kts 237°
2026-05-08 23:35 -22.55102 -46.84724 11065 ft 353 kts 236°
2026-05-08 23:35 -22.56590 -46.86821 10483 ft 348 kts 236°
2026-05-08 23:35 -22.58032 -46.88843 10266 ft 331 kts 236°
2026-05-08 23:36 -22.59399 -46.90764 10114 ft 313 kts 236°
2026-05-08 23:36 -22.60697 -46.92596 9802 ft 303 kts 236°
2026-05-08 23:36 -22.61955 -46.94380 9474 ft 293 kts 237°
2026-05-08 23:36 -22.63182 -46.96126 9334 ft 297 kts 237°
2026-05-08 23:37 -22.64443 -46.97926 9100 ft 299 kts 237°
2026-05-08 23:37 -22.65700 -46.99714 8785 ft 294 kts 237°
2026-05-08 23:37 -22.66933 -47.01466 8596 ft 293 kts 237°
2026-05-08 23:37 -22.68168 -47.03223 8334 ft 293 kts 237°
2026-05-08 23:38 -22.69401 -47.04976 8104 ft 293 kts 237°
2026-05-08 23:38 -22.70635 -47.06730 7879 ft 292 kts 237°
2026-05-08 23:38 -22.71865 -47.08478 7645 ft 292 kts 237°
2026-05-08 23:38 -22.73091 -47.10223 7425 ft 290 kts 237°
2026-05-08 23:39 -22.74311 -47.11959 7193 ft 290 kts 237°
2026-05-08 23:39 -22.75518 -47.13679 6970 ft 291 kts 237°
2026-05-08 23:39 -22.76737 -47.15414 6752 ft 288 kts 237°
2026-05-08 23:39 -22.77965 -47.17161 6519 ft 288 kts 237°
2026-05-08 23:40 -22.79165 -47.18872 6288 ft 288 kts 238°
2026-05-08 23:40 -22.80371 -47.20594 6059 ft 285 kts 237°
2026-05-08 23:40 -22.81626 -47.22245 5930 ft 281 kts 230°
2026-05-08 23:40 -22.82733 -47.23281 5839 ft 272 kts 221°
2026-05-08 23:41 -22.84209 -47.24464 5711 ft 255 kts 221°
2026-05-08 23:41 -22.85417 -47.25446 5593 ft 241 kts 222°
2026-05-08 23:41 -22.86389 -47.26245 5516 ft 230 kts 223°
2026-05-08 23:41 -22.87622 -47.27275 5447 ft 216 kts 223°
2026-05-08 23:42 -22.88911 -47.27993 5278 ft 207 kts 194°
2026-05-08 23:42 -22.90269 -47.27733 5042 ft 196 kts 148°
2026-05-08 23:42 -22.91193 -47.26754 4811 ft 182 kts 124°
2026-05-08 23:42 -22.91967 -47.25692 4582 ft 180 kts 124°
2026-05-08 23:43 -22.92756 -47.24630 4329 ft 180 kts 124°
2026-05-08 23:43 -22.93509 -47.23568 4110 ft 177 kts 122°
2026-05-08 23:43 -22.94270 -47.22504 3855 ft 179 kts 125°
2026-05-08 23:43 -22.94992 -47.21514 3533 ft 173 kts 123°
2026-05-08 23:44 -22.95677 -47.20524 3423 ft 172 kts 123°
2026-05-08 23:44 -22.96471 -47.19440 3210 ft 178 kts 126°
2026-05-08 23:44 -22.97217 -47.18420 3022 ft 168 kts 122°
2026-05-08 23:44 -22.97840 -47.17475 2857 ft 158 kts 123°
2026-05-08 23:45 -22.98266 -47.16913 2713 ft 156 kts 128°
2026-05-08 23:45 -22.99067 -47.15806 2407 ft 156 kts 123°
2026-05-08 23:45 -22.99640 -47.14989 2247 ft 151 kts 127°
2026-05-08 23:45 -23.00088 -47.14358 2209 ft 162 kts 125°
2026-05-08 23:46 -23.00734 -47.13458 2159 ft 88 kts 127°
2026-05-08 23:46 -23.00884 -47.13246 2165 ft 39 kts 131°
2026-05-08 23:46 -23.00941 -47.13172 2167 ft 22 kts 128°
2026-05-08 23:46 -23.01073 -47.12991 2168 ft 32 kts 129°
2026-05-08 23:47 -23.01241 -47.12847 2174 ft 30 kts 153°
2026-05-08 23:47 -23.01323 -47.12808 2168 ft 6 kts 158°
2026-05-08 23:47 -23.01326 -47.12807 2171 ft 0 kts 159°
2026-05-08 23:50 -23.01354 -47.12814 2171 ft 11 kts 199°
2026-05-08 23:50 -23.01357 -47.12885 2170 ft 11 kts 284°
2026-05-08 23:50 -23.01320 -47.12958 2169 ft 12 kts 304°
2026-05-08 23:51 -23.01267 -47.13032 2172 ft 13 kts 309°
2026-05-08 23:51 -23.01209 -47.13113 2166 ft 14 kts 308°
2026-05-08 23:51 -23.01145 -47.13203 2164 ft 16 kts 308°
2026-05-08 23:51 -23.01075 -47.13300 2164 ft 17 kts 308°
2026-05-08 23:52 -23.01002 -47.13404 2163 ft 18 kts 307°
2026-05-08 23:52 -23.00922 -47.13514 2162 ft 19 kts 308°
2026-05-08 23:52 -23.00847 -47.13620 2162 ft 17 kts 307°
2026-05-08 23:52 -23.00848 -47.13701 2159 ft 11 kts 248°
2026-05-08 23:53 -23.00879 -47.13783 2160 ft 12 kts 233°
2026-05-08 23:53 -23.00947 -47.13844 2160 ft 13 kts 219°
2026-05-08 23:53 -23.00999 -47.13928 2161 ft 14 kts 245°
2026-05-08 23:53 -23.01015 -47.13966 2160 ft 0 kts 246°